GFSFLT1_sfc_30mbdewp_000.txt.gz
Dewpoint
47 51 52 55 57 58 56 55 53 50 49 49 48 45 44 44 41 39 38 38 39 39 38 38 37 36 36 36 34 36 37 39
45 47 48 51 53 53 53 51 49 46 46 44 43 42 45 40 39 38 36 36 36 37 38 38 37 36 37 38 37 36 35 41
41 42 44 47 50 47 45 45 45 44 43 45 46 45 43 40 36 35 36 36 36 37 38 38 37 36 38 38 38 35 38 40
38 38 38 41 41 40 38 39 39 41 44 43 40 40 40 36 37 33 35 35 36 36 37 37 37 37 37 38 38 36 37 37
35 34 33 33 33 34 35 36 36 37 37 37 36 37 35 38 34 32 34 34 34 35 36 37 36 37 38 38 36 35 36 31
36 36 36 37 36 35 36 36 36 36 37 38 37 34 36 35 33 33 33 34 35 35 36 36 36 36 36 35 32 31 32 30
38 39 38 37 36 35 36 37 36 36 35 36 34 34 33 31 33 33 34 34 35 36 36 36 36 35 34 33 31 31 30 30
39 38 37 37 36 35 35 33 32 33 33 33 32 30 30 32 33 34 35 34 35 37 36 36 35 34 33 31 28 28 27 25
38 37 36 36 34 31 31 31 31 32 33 33 34 34 34 35 35 35 35 35 34 37 35 32 32 33 31 32 29 27 28 26
37 36 35 35 36 34 31 31 28 27 27 30 28 28 26 27 30 32 34 36 36 36 32 34 35 35 31 30 28 26 27 26
35 33 33 34 35 36 30 23 19 20 21 22 22 23 26 28 31 31 33 35 35 35 34 34 32 29 29 28 27 26 27 28
32 31 30 29 28 25 21 18 17 19 20 23 24 26 27 27 27 31 32 33 34 33 31 32 30 28 30 25 24 24 27 27
31 29 23 19 19 19 18 18 18 19 21 24 25 27 27 27 27 29 31 30 30 30 31 32 32 28 25 23 23 25 23 20
31 27 19 19 19 19 19 19 17 18 19 21 25 27 28 28 28 27 28 28 29 30 32 30 27 23 22 23 24 23 19 18
29 26 18 18 19 19 19 18 19 20 20 23 25 28 29 30 30 30 30 31 32 31 28 28 22 20 22 23 21 19 19 20
28 23 17 18 19 19 18 18 19 21 21 22 25 29 30 30 31 32 33 33 33 31 31 22 19 21 22 20 19 20 20 20
27 22 15 17 18 17 16 16 18 20 21 22 27 29 30 30 31 32 33 34 30 23 17 19 21 21 24 26 27 27 25 22
25 20 14 13 15 16 14 15 18 20 22 23 27 29 29 29 31 32 32 32 30 27 21 22 22 27 28 28 27 23 22 21
24 21 13 8 13 15 16 16 17 19 21 23 27 29 28 30 30 31 31 31 30 23 22 23 24 23 24 25 23 20 19 17

GFSFLT1_sfc_30mbdewp_003.txt.gz
Dewpoint
52 55 58 59 57 57 55 55 52 52 51 46 47 45 44 42 38 37 38 38 41 41 41 41 39 37 37 35 33 33 35 36
52 55 58 58 57 55 54 52 50 49 46 46 46 45 44 37 36 37 37 38 39 40 38 38 38 36 37 35 31 30 30 36
49 54 57 57 56 56 53 50 45 44 46 47 47 46 41 36 35 37 37 38 37 36 38 37 39 37 39 38 33 29 33 38
48 52 54 53 51 50 50 46 44 44 45 43 41 41 40 37 35 34 35 36 35 37 39 39 40 39 38 38 36 33 30 34
42 43 45 45 40 40 40 40 39 38 40 39 40 37 35 38 34 34 36 38 37 37 38 40 40 40 39 37 35 34 31 27
34 34 34 35 37 38 39 38 37 37 39 37 35 35 36 36 36 38 38 38 38 38 38 40 40 39 38 37 34 29 25 22
37 38 38 37 37 39 39 36 35 35 35 35 35 34 33 34 35 36 36 37 36 38 38 39 39 38 36 33 31 28 22 21
39 38 38 38 38 38 35 33 33 34 34 34 34 34 34 32 31 31 33 31 31 35 39 39 38 35 34 32 29 27 23 17
40 39 37 35 35 34 33 33 30 30 29 26 23 21 18 18 22 24 25 28 30 37 39 37 35 34 33 33 30 26 27 24
39 38 36 34 33 34 32 23 19 19 21 21 23 24 24 24 26 27 27 33 36 39 36 36 35 34 33 31 29 27 27 28
38 36 38 38 36 30 24 18 17 20 22 24 24 26 27 27 27 27 29 33 36 38 35 34 35 34 31 30 27 27 27 28
35 35 36 38 30 22 20 19 20 20 22 25 27 27 28 28 28 29 30 33 35 35 34 33 33 31 29 29 28 26 26 27
33 31 28 25 21 19 20 20 19 20 22 24 26 27 29 28 29 29 31 31 32 32 33 32 31 30 28 26 25 24 25 24
29 22 19 19 20 21 21 20 18 19 19 21 24 27 29 29 29 31 31 32 31 33 33 32 28 27 23 24 25 25 23 21
28 20 17 19 20 21 21 21 21 20 19 20 24 28 29 30 31 31 32 34 34 33 33 31 29 22 22 24 23 21 20 20
28 22 16 18 20 21 20 20 21 22 21 21 24 29 30 30 31 31 32 34 35 33 30 21 22 22 21 22 21 22 23 23
28 23 16 17 20 21 19 19 20 21 22 23 25 29 30 30 30 31 32 33 34 28 27 24 23 23 27 29 26 21 18 16
27 24 18 14 18 19 17 17 19 20 21 22 25 28 29 29 30 29 31 32 33 32 25 24 25 25 26 26 23 16 14 14
28 24 20 14 15 16 17 16 17 18 19 21 24 27 28 29 29 28 31 31 29 29 25 23 23 21 22 20 20 17 15 14

GFSFLT1_sfc_30mbdewp_006.txt.gz
Dewpoint
49 46 48 51 55 56 56 53 54 56 53 51 45 42 41 40 38 38 39 40 41 40 41 41 37 35 34 34 35 34 34 35
52 54 53 54 56 56 55 54 54 53 50 48 45 44 42 39 38 40 39 39 38 38 36 36 38 36 38 38 35 33 32 34
53 55 55 55 54 54 54 53 53 49 47 45 46 45 41 38 38 39 37 37 35 35 38 37 37 36 36 38 36 32 28 32
53 54 55 55 55 55 53 51 46 44 45 43 42 42 40 38 36 35 38 38 37 36 37 37 37 36 35 36 35 34 30 29
52 54 55 55 55 53 48 43 43 41 40 40 40 37 36 37 35 36 38 39 39 37 36 37 37 35 35 36 33 33 30 24
48 48 48 45 44 43 42 40 38 39 39 39 37 36 35 35 35 35 35 34 35 34 34 35 35 34 35 37 35 30 28 27
39 40 38 37 40 41 40 38 37 37 37 38 38 36 31 27 23 20 17 15 16 19 23 33 37 37 38 35 31 31 28 25
34 35 35 37 40 40 38 36 36 37 37 33 28 23 19 16 16 14 16 15 17 19 25 29 35 38 35 32 32 32 28 24
36 36 37 38 39 37 37 36 35 31 26 20 20 19 19 18 21 23 21 21 24 29 34 37 38 35 33 35 34 30 26 23
38 39 38 38 37 38 37 31 25 22 22 22 23 24 26 26 26 24 23 24 26 31 37 37 37 34 36 32 28 26 24 21
39 39 38 37 38 36 30 25 23 23 23 24 24 25 26 26 25 24 24 26 28 31 34 36 34 34 31 28 25 22 21 19
39 38 38 38 36 31 27 24 24 22 22 25 27 26 26 26 25 24 25 27 27 29 32 34 33 29 28 29 23 20 19 19
39 38 39 38 31 27 25 24 23 22 22 24 25 26 26 26 25 25 27 28 28 29 30 31 30 28 28 23 20 20 19 19
37 36 36 32 27 24 25 25 22 19 18 20 22 24 26 26 25 26 27 28 30 31 30 30 28 26 23 20 21 21 21 21
35 32 30 27 24 25 26 25 21 19 18 19 21 25 26 27 27 26 27 29 30 30 30 30 29 24 21 22 21 22 21 21
33 30 27 25 24 26 26 23 22 21 19 19 21 25 27 27 27 26 27 30 30 30 28 25 24 24 21 23 24 24 22 19
32 30 28 25 23 25 23 21 20 20 20 21 22 24 26 27 25 27 26 26 28 28 29 29 27 23 29 27 20 17 17 16
32 32 29 24 22 25 21 19 19 19 19 20 21 23 25 24 24 24 24 25 27 26 27 28 27 27 27 23 21 17 17 14
33 32 29 23 21 23 19 16 17 17 18 19 21 23 22 22 22 24 24 25 25 23 23 26 26 23 21 20 19 18 16 14

GFSFLT1_sfc_30mbdewp_009.txt.gz
Dewpoint
45 44 43 48 52 53 54 54 53 56 53 51 47 45 43 42 40 41 41 41 42 42 40 42 41 37 38 39 40 39 37 35
48 46 46 49 53 54 55 53 53 53 49 47 45 44 43 41 40 41 41 40 39 40 39 39 39 38 39 39 39 38 35 31
48 49 49 51 53 54 54 53 53 48 46 44 45 44 41 39 41 41 39 40 39 38 39 39 38 38 37 37 37 36 31 28
50 51 52 53 54 53 53 51 48 45 45 44 42 41 41 39 38 37 39 40 40 39 37 37 37 36 32 33 33 34 31 28
50 52 52 53 53 53 49 47 45 44 40 41 41 39 37 39 37 38 37 36 34 31 29 30 32 34 33 31 31 34 32 27
50 51 53 51 51 50 46 44 40 40 41 41 39 38 36 35 32 27 22 20 18 17 17 21 27 31 33 33 34 34 31 30
48 48 49 48 47 45 43 39 39 40 41 41 40 34 28 24 22 19 17 17 17 19 23 26 27 28 34 34 35 33 35 32
41 43 40 40 42 42 40 38 39 40 39 34 29 26 24 21 21 20 21 19 20 22 28 30 30 31 34 35 36 37 36 31
37 37 36 38 41 41 38 38 38 36 29 26 26 22 23 22 24 24 21 21 22 25 28 32 32 34 35 35 37 37 35 29
33 35 36 38 40 40 39 38 35 28 28 29 27 26 28 27 26 24 21 22 22 23 28 31 35 34 36 37 33 30 26 25
35 35 38 39 40 39 40 35 28 29 30 28 27 27 27 27 26 24 23 24 25 25 26 28 30 32 34 30 27 28 26 23
36 38 39 40 39 40 36 30 29 30 27 26 27 27 27 26 25 24 24 25 24 24 25 27 27 27 26 27 27 28 22 22
37 39 39 38 39 37 32 30 29 28 26 26 27 28 27 25 25 24 25 25 25 26 27 27 26 25 24 23 23 21 21 22
37 39 39 38 38 34 31 29 28 26 23 24 24 25 26 25 25 25 25 24 25 27 27 26 25 28 26 25 21 22 24 25
38 39 39 39 37 32 29 29 27 24 20 20 21 25 25 25 26 26 24 24 26 27 26 25 25 24 20 20 20 22 23 24
38 38 38 38 35 30 29 30 27 22 20 19 21 24 26 25 26 26 24 25 26 26 25 27 28 26 22 24 25 24 22 20
37 37 36 34 32 29 29 29 25 23 22 22 23 24 23 23 25 25 24 23 23 23 23 24 29 27 27 25 19 19 19 17
35 35 34 32 31 29 29 26 23 22 21 21 22 23 22 23 24 21 21 22 23 23 22 22 27 27 27 23 21 17 20 19
34 34 34 32 31 28 28 23 22 21 20 20 21 21 20 20 20 19 20 22 22 22 21 22 23 26 23 20 19 19 20 19

GFSFLT1_sfc_30mbdewp_012.txt.gz
Dewpoint
41 41 46 51 52 53 57 57 58 57 56 52 52 49 47 45 44 44 44 43 44 43 46 43 43 43 42 44 43 44 42 40
44 43 46 52 54 54 55 56 56 57 53 49 47 45 45 45 43 43 43 42 41 42 43 43 42 42 43 41 41 40 39 37
46 46 46 51 54 54 55 54 55 54 49 50 49 46 44 43 44 43 43 43 41 40 42 41 42 41 40 41 37 37 37 36
47 46 49 52 55 55 55 54 54 49 49 47 45 44 44 43 43 43 42 41 38 36 36 37 38 38 38 38 36 37 35 34
47 50 50 55 55 55 54 52 48 46 44 44 43 42 41 40 40 36 33 29 25 23 25 30 31 34 36 39 35 38 37 33
49 51 54 54 55 54 51 47 43 42 43 43 42 40 39 36 30 27 26 24 26 25 27 32 33 33 33 37 40 39 38 36
49 53 53 53 54 51 47 42 41 43 44 44 38 33 29 28 24 23 25 26 25 27 31 33 35 36 37 40 39 38 38 36
48 52 52 51 50 47 44 41 41 43 42 36 33 29 26 27 25 25 24 24 25 29 29 33 35 37 38 37 38 38 38 37
47 47 48 47 46 45 41 40 41 41 34 31 30 28 27 28 28 26 25 25 26 26 31 32 34 37 35 37 38 39 38 37
43 44 42 43 43 44 41 40 40 35 31 32 31 30 30 29 28 26 25 26 25 27 29 30 33 34 36 38 38 36 33 31
39 39 39 41 43 43 42 40 38 32 33 34 31 31 32 30 28 26 25 27 27 28 28 29 30 33 36 35 33 31 30 31
36 35 37 40 42 42 42 40 33 32 34 32 32 30 31 30 28 26 26 27 27 27 27 28 28 28 28 29 29 27 30 27
36 36 38 40 42 41 42 39 32 33 32 31 31 32 30 29 27 26 26 26 27 27 28 28 29 28 28 29 28 26 27 30
36 37 39 40 41 41 41 36 32 32 31 29 30 31 31 28 27 27 27 27 26 27 28 29 28 27 29 29 27 25 25 28
36 37 40 40 40 41 39 35 33 31 28 27 27 29 28 28 27 28 28 26 26 28 29 29 27 26 25 25 24 27 27 26
35 37 40 40 40 40 37 34 33 31 27 24 25 27 28 28 28 28 28 27 27 27 27 28 28 30 28 26 26 23 23 21
34 37 40 40 40 40 36 33 33 30 27 25 24 25 26 27 27 29 29 28 27 25 25 26 26 30 26 24 20 20 21 21
32 36 39 39 39 39 35 32 32 28 26 24 25 26 27 28 28 26 25 24 26 25 26 25 24 30 27 23 18 18 20 23
33 35 37 38 37 36 33 32 29 27 24 24 26 27 28 26 23 23 23 24 25 26 25 24 25 28 26 22 17 18 22 23

GFSFLT1_sfc_30mbdewp_015.txt.gz
Dewpoint
45 50 52 53 53 56 58 56 53 55 56 53 51 48 48 47 44 45 43 43 41 44 45 44 44 43 42 41 40 41 42 38
43 50 52 53 55 57 57 56 53 57 52 50 49 46 44 43 43 42 43 43 44 41 41 40 41 40 40 41 39 35 35 37
41 49 52 53 55 56 56 56 55 56 51 49 48 45 43 42 44 43 42 41 41 40 39 40 39 39 38 39 37 34 38 35
44 47 53 53 54 55 55 55 54 54 50 48 45 44 45 44 44 43 40 29 24 26 31 30 30 32 35 38 38 36 34 35
46 47 53 54 55 55 55 54 51 49 45 43 41 42 41 42 37 31 25 25 24 27 31 31 32 33 31 34 39 39 36 33
47 49 54 55 57 56 55 48 45 45 44 43 43 41 33 30 27 25 23 26 27 30 30 31 34 35 37 39 38 38 36 34
49 52 55 55 56 54 46 43 43 45 44 41 38 31 27 24 24 24 23 26 28 30 29 33 34 37 39 38 38 38 37 35
52 53 53 54 53 46 42 43 44 40 36 32 30 28 26 23 24 25 24 24 27 26 29 31 34 39 37 38 38 37 38 37
52 52 52 51 47 42 41 43 43 37 33 30 28 28 27 27 27 26 27 26 27 28 29 29 32 36 37 38 37 36 38 35
52 52 49 46 44 42 41 42 41 35 31 31 29 29 30 28 28 27 27 27 25 27 29 28 30 33 37 37 36 35 36 32
49 48 46 45 44 43 41 41 38 32 31 31 30 31 31 30 28 26 26 27 27 28 28 29 29 29 30 35 35 33 30 32
44 43 44 44 44 43 42 40 35 32 34 32 32 31 32 30 29 27 27 27 27 27 28 28 29 28 29 29 28 26 30 30
40 40 41 43 43 43 42 40 33 34 34 33 32 32 31 30 29 28 27 26 28 27 27 29 29 30 30 29 29 28 28 28
38 37 39 42 42 42 42 38 33 34 32 32 33 32 32 30 29 27 28 27 26 27 28 28 29 28 27 28 29 27 27 27
37 36 39 42 42 42 42 38 34 33 32 31 32 32 32 31 29 28 28 27 26 26 27 29 30 28 27 28 27 26 25 23
37 37 40 41 42 42 41 39 35 33 31 29 30 32 33 29 29 29 29 29 27 27 27 28 29 30 30 27 24 22 22 21
31 40 41 41 42 42 41 38 35 32 28 26 29 31 30 28 29 29 29 29 29 28 28 27 27 31 28 25 23 20 20 20
33 37 41 41 42 42 40 36 34 30 28 28 30 28 29 31 31 30 29 29 29 28 27 26 27 29 28 24 20 17 18 21
32 34 37 41 42 42 38 35 32 29 28 28 30 31 32 30 31 30 27 27 26 25 27 28 28 29 28 25 18 17 20 23

GFSFLT1_sfc_30mbdewp_018.txt.gz
Dewpoint
54 53 54 54 53 55 58 56 53 54 56 51 49 47 48 46 45 44 43 43 46 43 42 42 41 41 40 40 37 37 38 38
52 53 53 53 53 57 57 54 54 55 52 48 46 46 44 44 43 44 43 42 41 41 41 42 40 39 39 40 38 34 34 35
51 52 52 52 55 57 56 53 55 54 50 49 47 44 43 43 43 42 42 41 41 37 36 31 33 35 37 37 37 35 38 35
49 51 52 53 56 57 56 53 55 55 51 49 45 44 44 43 43 43 33 26 27 29 30 30 31 32 30 33 38 37 34 33
46 51 52 53 56 57 56 55 54 56 50 47 43 41 41 42 41 31 26 26 29 31 31 32 33 35 35 38 39 37 35 32
43 51 52 53 56 56 56 55 54 52 49 47 43 42 42 39 29 25 26 28 31 31 32 34 34 39 39 38 37 35 35 33
47 52 53 53 56 56 56 50 49 47 45 44 43 39 35 27 25 23 26 30 30 29 33 33 36 39 38 37 37 37 36 35
50 53 54 55 56 53 47 45 45 45 43 42 37 32 27 25 24 25 26 27 28 27 30 31 34 38 38 38 37 37 37 36
51 54 54 55 54 48 45 44 42 40 38 37 31 28 27 26 27 27 27 27 27 30 29 30 32 37 37 38 36 35 37 36
51 53 53 53 48 44 45 43 38 37 35 33 31 30 29 28 28 28 27 28 28 28 29 29 30 30 35 37 36 35 35 34
52 52 51 49 43 42 43 42 38 39 35 32 32 31 30 29 28 27 28 28 27 28 28 28 29 29 29 32 32 32 29 31
51 50 49 46 43 42 42 41 38 37 37 33 31 30 30 29 27 28 28 27 28 27 28 28 28 29 30 29 29 28 29 30
49 49 47 45 43 42 41 41 38 37 33 31 31 33 32 30 28 29 28 27 28 27 27 27 29 29 30 29 28 29 29 28
46 46 46 45 44 43 41 40 36 33 32 33 34 33 31 30 30 29 29 28 27 27 26 27 28 30 30 29 29 29 28 29
41 42 44 45 45 44 43 39 35 35 33 33 33 33 32 31 30 29 28 28 27 26 27 27 29 30 29 28 27 26 26 24
39 38 38 41 43 43 43 37 37 35 34 34 34 33 34 33 30 29 29 29 28 27 27 28 28 30 30 29 27 25 23 22
34 35 38 40 42 43 43 38 37 35 34 33 33 35 33 31 30 30 29 30 30 30 29 30 29 29 30 30 27 23 21 20
35 40 41 41 43 43 43 41 38 35 33 32 35 32 31 32 31 30 31 31 32 31 31 31 29 29 29 30 26 21 19 20
33 34 41 42 43 43 43 40 35 32 32 32 32 33 32 33 32 31 32 32 29 28 27 28 29 29 30 28 23 20 19 21

GFSFLT1_sfc_30mbdewp_021.txt.gz
Dewpoint
55 57 58 58 57 55 57 56 55 54 55 53 50 49 48 47 46 46 46 47 45 44 43 42 41 40 39 39 35 36 38 37
56 57 55 57 55 56 57 55 54 55 51 49 46 45 45 45 44 43 45 44 42 41 42 40 39 38 40 38 37 34 35 34
55 54 54 54 54 56 56 54 54 54 50 47 46 45 44 43 44 43 42 42 41 40 35 32 33 32 33 36 37 35 37 34
53 53 53 53 53 56 55 54 54 54 50 47 45 44 43 43 42 42 38 34 31 30 30 31 32 31 31 33 37 36 34 32
52 52 52 52 53 56 56 54 55 54 50 46 44 42 41 42 42 33 27 31 31 32 32 34 35 35 35 38 38 37 35 32
49 52 52 52 53 55 57 54 54 55 50 47 44 44 43 41 33 26 28 32 32 32 34 34 37 38 38 36 35 35 34 33
45 51 52 53 55 56 57 55 54 55 51 48 45 45 42 36 27 25 28 31 30 33 34 35 39 38 37 37 36 35 35 34
44 50 51 52 55 56 56 55 55 54 52 48 45 44 40 33 26 27 29 28 27 30 30 31 37 39 38 38 37 36 36 34
47 50 52 53 54 56 56 52 50 48 48 46 42 38 34 28 27 28 28 28 28 30 31 31 38 37 37 38 37 35 36 36
48 51 53 53 54 54 53 50 48 45 44 40 37 34 32 28 28 29 28 29 29 30 30 31 31 32 35 37 37 35 35 35
51 52 53 54 55 52 49 47 45 43 41 39 37 34 32 30 29 28 28 29 30 30 30 29 29 29 30 32 34 32 29 29
51 53 53 54 52 47 47 43 41 40 39 39 39 34 33 31 29 29 30 30 30 29 29 28 28 29 30 29 28 27 28 29
51 52 51 49 46 45 45 42 41 39 38 37 36 35 33 30 29 32 31 28 29 29 28 28 29 29 30 30 29 29 29 29
50 50 49 48 46 44 44 43 41 40 40 38 35 32 31 31 33 31 30 29 29 28 27 27 27 29 30 30 29 29 29 29
47 48 48 47 46 44 43 44 42 41 39 37 35 33 32 33 30 30 30 30 29 28 28 28 28 29 30 30 29 28 28 28
43 45 46 46 46 46 45 43 40 39 38 37 34 36 35 32 32 31 31 30 28 28 28 29 30 30 29 29 28 27 27 26
38 40 41 41 43 45 45 42 40 39 37 35 36 36 34 34 32 31 31 31 30 30 32 32 31 31 30 30 29 27 26 23
34 37 40 40 40 43 43 41 40 38 36 36 36 37 34 32 31 32 32 33 36 36 33 30 28 30 30 30 32 27 24 22
33 33 34 39 43 43 44 40 38 36 36 35 35 33 33 33 32 33 34 36 35 33 31 29 29 29 29 30 31 25 22 21

GFSFLT1_sfc_30mbdewp_024.txt.gz
Dewpoint
54 55 57 59 59 58 57 58 57 56 56 55 54 53 52 51 50 49 49 47 44 44 44 43 42 40 39 36 35 37 38 35
54 55 57 58 58 57 57 56 55 55 53 53 52 51 48 47 46 46 47 45 44 43 42 40 39 38 39 37 36 34 35 34
54 55 56 57 57 56 56 56 55 54 53 49 48 47 45 44 44 44 45 43 42 42 38 37 37 35 34 37 36 36 35 33
54 55 55 56 56 56 56 55 54 53 51 46 45 44 44 43 42 42 41 39 36 32 31 31 31 31 31 34 36 35 33 31
53 54 54 54 55 56 56 55 54 54 49 46 44 43 42 42 42 37 32 32 31 32 33 33 34 35 37 37 38 37 35 32
50 54 54 54 54 55 56 55 54 54 49 46 45 43 43 42 38 30 31 32 32 34 34 36 37 37 36 36 35 34 34 33
48 52 53 53 53 54 56 55 54 54 51 48 45 45 42 40 34 29 31 31 33 34 35 37 38 37 37 36 35 33 33 33
45 50 52 52 53 54 56 55 54 55 53 50 46 46 43 40 34 32 31 30 32 32 34 36 37 38 38 37 36 35 35 33
44 47 51 52 53 54 55 56 55 55 55 52 48 47 44 41 36 32 31 29 30 31 31 33 37 39 38 38 37 36 36 36
44 45 50 52 53 54 55 56 55 55 54 51 47 46 44 39 37 33 32 29 31 33 31 32 38 37 37 37 37 36 35 35
45 47 50 52 53 54 55 56 54 52 51 48 46 44 43 40 36 32 31 32 32 31 31 31 31 32 33 36 36 36 34 34
47 49 51 52 53 54 54 54 52 47 47 46 44 42 42 38 34 32 32 32 31 31 30 31 30 30 31 30 31 30 28 27
49 51 52 53 53 53 51 49 47 47 46 44 43 40 37 34 32 31 31 31 32 31 30 30 30 30 30 30 29 28 28 28
49 51 51 52 49 49 48 47 45 43 43 43 41 39 35 33 31 32 33 32 31 30 30 29 29 29 30 31 31 29 29 29
46 49 50 48 47 47 47 46 44 43 43 41 41 40 36 34 33 34 32 31 30 29 29 29 29 30 31 30 30 30 29 29
44 46 47 48 48 47 46 45 44 43 42 41 40 39 36 34 33 32 32 31 30 29 30 29 33 35 30 30 30 29 29 28
38 40 40 41 44 47 46 44 43 42 41 40 39 37 35 34 33 32 31 30 30 29 31 37 38 33 31 31 31 30 28 27
33 34 36 39 42 43 44 44 41 40 40 39 38 37 35 34 32 31 31 32 36 37 38 38 33 31 30 30 31 32 29 27
31 32 34 38 42 43 41 40 39 38 37 37 36 35 34 33 33 35 36 37 38 38 38 35 31 29 29 29 29 31 29 27

GFSFLT1_sfc_30mbdewp_030.txt.gz
Dewpoint
52 53 54 52 52 53 54 56 57 59 58 54 50 54 57 60 59 57 55 52 50 50 49 49 45 43 43 42 38 35 33 31
49 52 53 53 54 53 54 54 56 58 56 52 50 54 57 59 59 57 55 52 50 50 48 47 44 42 41 41 36 35 33 33
48 49 50 51 53 55 55 55 56 57 54 51 51 53 56 58 58 57 55 52 50 49 47 45 43 43 41 38 35 31 31 34
47 49 50 51 51 53 53 54 55 56 54 51 55 56 56 57 56 56 55 52 50 48 47 44 44 41 37 36 35 32 33 35
46 50 51 52 52 52 53 53 54 56 56 53 54 53 53 55 56 55 52 51 49 46 45 44 42 35 32 32 33 36 36 36
46 47 50 53 53 53 55 55 55 55 56 55 54 54 54 54 54 51 50 48 47 44 42 40 37 33 33 32 37 39 39 35
45 47 49 50 53 54 55 56 55 55 56 57 55 54 55 54 51 48 46 44 43 41 39 38 36 33 36 40 42 41 38 35
45 46 48 50 52 54 55 56 55 55 56 57 57 56 56 54 51 48 45 43 41 41 39 38 38 38 41 41 42 41 36 35
44 46 47 49 52 54 56 55 55 55 56 56 56 56 55 53 51 48 46 43 42 41 40 41 37 41 41 42 43 38 37 34
38 42 46 49 51 54 56 55 56 55 56 57 56 56 55 53 51 49 48 44 42 42 43 40 39 42 42 44 40 37 35 36
37 40 42 46 50 52 55 56 55 55 56 57 57 56 55 54 52 49 46 44 42 41 40 38 41 42 44 41 37 36 35 36
42 42 43 44 48 51 53 55 55 55 56 57 57 57 56 53 52 50 48 47 43 40 39 41 41 42 39 37 35 31 36 34
43 45 46 47 49 50 51 53 53 54 55 56 57 57 55 54 53 52 49 47 41 39 41 39 35 36 34 33 30 31 33 35
43 48 48 49 50 51 52 53 53 54 55 54 55 55 54 53 51 49 46 42 41 41 38 33 33 32 30 32 33 36 39 35
41 47 49 50 51 52 53 53 54 53 52 52 52 52 52 51 50 48 46 43 41 37 35 33 33 30 29 34 39 40 39 34
45 46 49 50 51 51 51 52 51 50 49 49 49 50 49 48 47 46 44 42 38 35 34 34 33 33 38 41 40 39 36 32
42 42 42 42 44 46 48 48 48 47 47 46 46 46 44 43 41 39 37 35 34 34 33 36 38 40 40 40 39 38 35 32
37 39 41 42 43 44 44 44 45 45 44 43 43 42 41 40 38 35 34 33 35 34 37 37 38 38 40 38 36 34 36 35
36 37 38 39 40 40 41 40 41 40 40 40 40 40 38 36 35 35 36 37 38 38 39 37 36 37 39 35 37 37 37 31

GFSFLT1_sfc_30mbdewp_033.txt.gz
Dewpoint
48 47 49 51 52 52 53 54 54 54 56 55 50 47 50 51 57 57 58 55 54 54 51 50 50 47 45 43 42 36 35 34
48 50 48 50 51 51 51 51 52 54 56 52 47 46 49 54 58 58 56 54 54 53 51 52 50 46 44 44 40 38 34 34
45 49 49 49 50 51 51 51 52 53 51 50 46 46 48 53 58 57 56 56 53 53 52 51 49 45 44 43 38 35 34 36
43 45 48 50 50 50 51 51 52 53 51 50 46 46 50 51 55 57 57 56 54 52 52 50 48 45 45 43 39 35 33 37
41 44 45 48 49 51 51 51 51 52 52 49 46 48 48 51 54 55 56 57 55 52 51 51 48 46 43 42 38 35 37 36
40 43 45 46 48 49 51 51 51 51 53 52 49 50 51 51 53 56 57 56 55 53 50 50 48 46 40 39 35 37 40 42
38 41 45 47 48 50 51 51 50 51 52 54 54 52 52 50 54 55 54 54 53 52 48 48 47 42 38 37 39 42 43 42
37 38 41 44 48 51 51 51 51 51 52 54 55 54 54 53 54 55 52 51 49 48 47 46 45 42 44 45 43 45 45 44
38 38 39 42 45 50 53 52 52 51 54 54 55 57 57 57 57 55 53 50 48 50 49 47 43 43 44 45 45 44 45 44
37 38 40 42 44 48 53 53 52 53 53 55 56 57 58 57 58 56 53 49 50 49 46 44 43 43 45 45 45 45 44 42
33 36 40 42 44 47 53 54 53 53 55 57 57 58 57 58 57 55 52 50 48 45 44 43 42 44 45 45 45 45 42 37
39 38 38 41 45 48 50 54 55 54 55 56 58 58 58 58 57 54 52 50 47 45 45 44 43 43 43 43 45 40 36 36
39 42 42 42 44 47 49 53 54 54 55 56 58 59 57 56 55 54 53 52 50 48 45 43 43 41 42 42 40 35 34 36
38 43 45 45 47 48 50 52 52 53 54 54 56 58 57 56 55 55 54 52 49 44 42 42 41 41 40 41 37 32 39 41
34 43 46 47 48 50 51 53 53 53 53 54 54 55 55 54 54 52 50 45 42 41 42 41 40 38 36 33 37 40 41 41
38 42 46 49 51 52 52 53 53 52 52 52 53 53 52 51 51 50 49 46 44 42 39 38 36 35 35 36 40 41 40 40
42 46 48 49 50 50 51 50 49 49 48 47 48 48 47 47 46 44 43 42 40 37 36 35 35 36 41 40 40 38 39 39
41 41 42 43 44 44 45 45 45 45 44 44 45 44 43 42 40 39 37 36 36 36 36 37 37 40 39 39 38 37 37 37
39 39 39 40 41 41 41 41 41 41 41 42 42 41 40 39 37 36 35 35 35 35 35 34 35 36 38 38 37 37 38 38

GFSFLT1_sfc_30mbdewp_036.txt.gz
Dewpoint
49 50 51 51 48 45 45 46 48 49 49 44 49 51 53 53 54 59 59 58 57 56 56 54 51 51 49 46 45 41 41 38
50 50 52 51 49 49 49 50 51 52 52 52 54 49 51 52 56 58 59 59 57 56 56 54 52 51 49 48 45 39 37 37
48 49 51 52 51 52 54 55 54 53 55 56 54 50 49 51 58 59 59 60 56 56 56 54 53 52 50 48 44 41 40 39
47 48 50 51 53 53 53 54 55 55 56 55 54 50 49 49 58 59 59 58 57 55 55 55 54 53 50 48 45 42 39 40
45 47 50 50 52 53 52 51 51 53 53 51 51 47 45 49 56 58 58 58 58 56 55 55 54 51 50 49 46 42 40 40
41 45 48 51 52 53 53 52 52 53 54 54 52 48 47 49 54 55 57 58 58 57 56 54 53 51 48 47 44 41 41 43
41 43 45 48 51 52 54 52 52 52 53 53 54 51 51 52 54 55 57 58 58 57 54 54 50 48 48 48 48 43 45 44
40 42 43 45 48 51 53 53 52 52 53 55 54 55 53 53 54 56 57 57 55 54 49 48 49 50 50 49 46 45 46 44
40 39 43 45 47 50 51 52 52 51 53 54 56 55 56 56 56 58 57 56 53 51 50 49 50 49 47 46 45 45 45 45
39 39 40 45 48 50 52 52 52 51 52 54 55 58 57 58 58 58 58 55 51 50 51 51 49 47 45 45 45 45 46 46
34 39 40 42 45 51 54 53 52 52 53 55 56 58 58 60 59 58 57 52 50 51 51 49 46 44 46 45 45 46 46 45
35 36 37 40 44 45 52 54 54 53 54 56 58 58 57 56 59 59 54 53 52 50 49 47 44 44 45 44 44 44 44 43
37 39 39 40 41 45 52 54 54 55 55 59 58 59 60 59 58 56 55 53 52 49 47 45 44 45 44 43 43 42 42 40
37 41 43 42 43 45 47 52 54 55 55 58 58 59 58 57 56 55 54 53 52 50 47 45 44 43 42 42 43 43 41 41
31 41 44 46 47 49 50 52 53 53 54 58 58 58 57 56 56 54 49 46 44 44 44 43 43 43 42 42 43 42 41 41
31 41 45 48 50 51 53 54 55 54 54 55 55 56 55 55 53 51 48 45 43 42 42 42 42 41 41 40 40 41 39 38
35 38 47 49 51 52 53 53 53 53 52 52 52 52 51 51 50 50 48 45 44 42 41 40 39 38 36 40 40 39 38 39
41 45 49 50 51 51 50 50 49 48 47 48 47 46 45 44 43 42 41 40 39 38 38 38 39 39 39 39 38 38 38 37
43 44 45 46 46 46 46 45 45 45 44 44 44 43 42 40 38 37 37 37 37 37 37 37 38 39 39 38 37 38 38 38

GFSFLT1_sfc_30mbdewp_039.txt.gz
Dewpoint
52 52 51 50 50 51 51 52 51 51 51 51 51 49 49 49 53 56 56 56 57 56 55 55 52 50 49 48 45 45 40 37
51 51 51 49 49 49 51 50 49 49 46 47 47 48 51 52 53 57 58 57 58 57 56 55 51 50 49 47 46 40 38 39
50 51 50 49 46 46 47 47 47 49 46 45 45 51 51 51 52 57 58 59 59 57 56 53 51 51 51 48 44 40 38 37
49 51 50 48 46 45 44 45 50 48 49 47 51 55 50 50 53 55 58 57 54 57 56 54 52 52 51 49 44 40 38 41
49 51 50 48 49 49 50 50 53 51 51 52 54 53 51 48 50 57 58 58 56 57 57 55 54 53 52 49 46 43 41 38
47 49 52 51 50 50 53 53 54 52 52 54 54 52 51 49 52 56 57 58 58 58 57 56 54 53 51 49 46 44 45 45
48 48 50 52 52 52 52 53 54 54 54 54 54 53 49 47 49 57 57 58 58 58 57 56 54 49 49 48 47 46 48 47
45 47 49 50 51 52 52 51 51 52 52 53 53 53 51 48 49 54 57 57 58 58 56 54 51 49 48 49 49 47 46 46
42 45 47 49 50 51 52 52 52 52 52 53 53 54 53 51 53 55 57 57 58 57 53 51 50 51 50 49 48 46 46 45
40 42 45 47 49 50 52 53 52 52 53 53 54 53 54 56 56 57 56 58 56 54 51 49 49 49 49 47 46 46 45 45
40 41 43 44 46 49 51 51 52 52 52 53 55 56 55 57 56 54 55 56 55 53 52 51 50 48 47 46 45 46 45 45
38 41 41 44 45 46 49 51 53 54 54 53 54 57 57 57 58 58 58 54 53 52 52 51 48 46 46 45 45 45 43 44
36 38 39 41 44 47 49 52 55 51 52 55 56 58 58 58 58 57 56 52 52 53 52 50 47 45 45 44 44 44 42 43
38 40 40 41 43 48 50 54 55 54 54 54 59 59 58 58 57 56 54 53 53 50 48 46 45 45 44 44 43 43 43 43
40 41 42 43 46 50 54 55 57 58 59 58 58 57 56 56 55 54 52 51 50 50 47 46 45 44 44 43 43 43 42 42
39 42 44 47 50 53 54 55 56 58 58 57 56 56 55 54 52 49 47 46 45 45 44 44 44 43 43 43 43 42 41 40
33 45 48 50 51 53 53 53 54 55 54 54 55 54 54 53 51 48 46 44 43 42 42 43 42 42 42 42 42 41 39 37
37 47 49 51 53 53 52 51 50 50 50 50 49 48 47 47 48 47 45 43 41 40 40 39 39 38 39 40 39 38 38 37
46 49 51 51 51 50 48 47 47 47 46 45 45 43 42 40 40 39 39 38 37 38 38 39 38 38 39 38 37 37 37 37

GFSFLT1_sfc_30mbdewp_045.txt.gz
Dewpoint
51 52 53 53 53 54 54 54 54 54 54 54 54 53 49 48 50 54 55 55 55 55 55 55 53 52 50 49 46 44 42 39
52 50 51 52 52 52 53 53 54 54 53 52 52 51 49 47 47 49 51 54 56 56 55 55 54 52 50 49 46 43 41 40
51 51 50 51 51 51 51 52 52 52 52 50 51 49 49 47 48 49 51 53 54 56 55 55 54 51 49 47 45 42 41 40
51 50 50 50 50 50 51 51 51 51 51 51 49 49 49 47 47 48 50 54 55 56 56 55 54 52 50 48 46 42 40 39
51 51 50 49 50 50 50 51 51 50 50 49 48 47 46 45 45 47 49 53 55 57 57 56 55 53 51 49 48 44 41 39
50 50 50 50 49 49 50 50 50 50 49 48 47 47 47 47 48 49 50 51 55 57 57 57 56 54 52 51 49 47 44 42
50 50 50 50 49 49 49 50 50 49 49 48 47 46 46 46 48 49 50 52 54 56 56 57 56 55 53 53 52 49 46 45
49 49 49 49 48 48 48 48 48 48 49 48 48 46 46 46 48 50 51 51 53 55 56 56 56 56 55 54 52 50 48 46
48 49 50 49 48 46 46 46 47 47 48 48 48 48 47 47 48 51 52 52 53 55 56 57 57 57 55 54 53 51 50 48
48 49 50 50 48 47 45 45 45 45 46 49 48 48 48 49 50 52 53 53 55 56 57 57 58 58 56 54 53 51 49 48
47 48 49 50 49 47 47 45 44 44 45 46 50 50 50 50 53 54 54 53 56 56 57 57 56 55 54 54 52 50 48 48
44 47 48 50 51 49 47 47 46 46 48 49 50 51 51 53 54 54 55 55 56 56 56 55 55 54 51 50 49 48 47 47
42 43 47 48 49 51 50 49 48 49 51 51 52 53 54 54 55 56 56 56 57 56 55 55 52 51 50 49 48 47 47 46
38 41 42 46 48 49 50 52 52 51 52 53 54 54 55 55 55 56 56 57 57 57 57 55 52 51 49 48 47 47 47 46
34 36 41 43 46 48 49 51 52 53 53 53 54 55 55 55 56 56 56 57 57 56 55 53 52 50 49 47 47 46 45 45
36 38 39 42 44 45 46 47 50 53 53 54 54 55 56 57 57 57 57 57 57 54 53 51 49 48 47 46 45 44 44 43
33 37 40 41 44 46 49 47 48 52 53 54 55 55 56 57 56 55 54 53 52 51 49 47 47 46 46 44 44 43 43 42
27 33 40 42 47 50 51 53 54 53 54 54 54 55 55 54 52 51 49 48 47 47 46 46 45 44 43 43 43 42 41 41
28 28 40 46 52 53 54 55 56 56 56 55 55 53 51 49 48 47 45 45 45 44 43 43 43 43 42 42 41 39 38 37

GFSFLT1_sfc_30mbdewp_048.txt.gz
Dewpoint
51 53 53 54 54 54 55 56 56 56 56 55 54 52 50 53 55 55 54 53 53 52 51 50 49 49 50 48 45 44 42 38
51 51 53 53 54 54 54 55 56 55 55 53 53 52 49 48 50 54 55 54 55 54 54 54 53 51 50 49 46 44 42 39
51 50 52 52 52 53 53 54 54 55 55 55 52 53 50 48 48 50 54 55 56 56 55 55 54 53 51 49 47 44 42 40
50 50 50 51 51 52 52 53 53 54 54 54 50 50 49 48 48 48 50 52 54 55 55 55 54 53 51 49 47 44 43 41
51 50 49 49 50 51 52 52 53 52 52 51 49 49 49 48 46 47 48 50 51 53 55 55 55 53 52 50 48 44 42 41
50 51 50 50 50 51 51 51 52 52 51 50 49 49 48 47 46 46 47 49 51 52 54 55 55 54 53 52 50 46 44 43
49 51 51 50 50 50 50 50 51 51 50 50 49 48 48 47 47 46 47 49 51 52 54 55 55 55 54 53 52 50 49 47
49 50 50 50 49 49 50 50 50 50 50 49 49 48 48 47 47 47 47 48 49 52 54 54 55 55 55 54 53 52 51 49
48 50 49 50 49 49 49 49 49 50 50 49 49 48 47 47 47 47 48 50 51 52 53 54 54 55 55 54 54 53 52 51
47 49 49 49 49 48 48 48 49 49 49 49 49 48 48 47 47 48 50 52 52 53 54 54 54 55 55 55 54 54 53 53
47 48 49 50 49 48 48 48 47 48 48 48 48 49 49 49 49 49 50 52 53 53 54 55 55 56 56 56 56 55 54 53
45 48 49 50 50 48 47 47 47 47 47 48 48 49 49 50 49 50 52 53 53 54 54 55 56 56 56 55 55 53 51 51
42 46 48 49 50 49 48 47 46 46 46 47 48 49 51 50 50 50 51 51 54 54 55 55 55 56 53 53 52 51 50 49
41 44 47 48 49 50 49 48 47 46 47 47 49 49 50 51 51 51 51 53 54 55 55 55 55 53 52 51 51 50 49 48
34 41 43 47 48 49 50 50 49 49 48 49 49 50 50 50 51 51 52 54 55 55 56 56 56 52 51 50 50 48 47 46
30 34 40 42 46 48 49 50 51 51 50 50 50 51 52 52 52 53 54 56 56 56 56 56 53 51 50 49 48 47 46 45
25 32 37 38 42 45 48 49 50 52 52 52 52 52 53 54 54 54 55 56 56 56 55 52 50 50 48 47 47 45 45 44
27 29 35 39 41 43 45 47 48 51 52 53 53 53 54 54 55 56 56 55 53 53 51 49 48 47 46 45 45 44 43 42
30 28 30 37 41 46 48 50 49 49 51 53 54 54 55 55 54 53 51 49 49 48 47 46 45 44 43 42 42 41 40 39

GFSFLT1_sfc_30mbdewp_051.txt.gz
Dewpoint
50 53 53 54 55 56 57 57 57 57 57 57 57 56 55 56 57 56 54 52 52 51 49 49 48 50 49 47 44 44 41 39
51 51 53 53 55 55 56 56 56 56 56 55 54 54 54 55 56 55 55 53 53 53 51 51 49 48 50 50 47 45 43 41
51 51 52 53 54 54 55 56 56 56 56 56 55 54 52 53 54 56 55 54 54 54 54 53 52 51 51 52 49 46 45 42
51 50 50 52 53 54 54 55 55 56 56 56 54 51 50 49 51 53 54 56 53 54 56 56 56 55 51 52 51 49 46 45
51 51 50 51 52 53 53 54 55 55 56 54 53 51 50 48 48 51 51 53 55 56 57 57 56 56 55 54 53 51 50 47
50 51 50 50 51 52 53 53 54 55 54 54 52 52 51 50 48 48 49 50 52 53 55 56 56 56 56 56 54 52 51 50
49 51 51 50 50 51 52 52 53 53 54 53 52 51 49 48 48 47 48 48 50 52 52 54 55 56 56 56 56 54 52 50
48 50 50 50 50 49 51 51 51 53 52 52 52 51 51 50 49 49 48 49 50 51 52 54 54 55 56 57 56 55 54 53
48 49 50 50 50 50 51 51 51 52 52 51 51 51 51 50 50 49 50 50 50 51 52 53 53 54 55 56 56 56 56 55
46 49 50 50 50 50 51 51 51 51 51 52 51 51 50 50 50 50 50 50 50 51 52 52 54 54 55 55 55 55 55 55
45 48 50 51 50 50 50 51 50 51 51 52 51 51 51 51 51 50 50 50 51 51 52 53 53 54 55 55 56 56 56 55
45 47 49 50 50 50 50 50 50 50 51 52 51 51 51 51 50 50 50 50 50 50 51 52 53 54 55 56 56 56 55 55
41 46 49 50 50 50 49 49 49 50 50 51 51 51 51 51 50 50 51 50 50 51 51 52 53 54 55 56 56 55 54 53
38 44 47 49 50 50 49 49 49 49 49 50 50 50 51 50 50 51 51 51 52 52 52 53 53 53 55 56 55 54 52 53
28 39 45 47 49 50 50 49 49 49 48 49 49 50 50 51 51 51 51 51 51 52 53 53 54 54 55 54 54 54 53 52
28 30 38 45 48 50 50 50 50 49 48 47 48 49 49 49 51 52 52 52 52 53 53 54 55 55 55 54 53 51 50 48
30 29 33 39 44 48 49 51 51 50 49 48 48 49 49 50 50 51 52 52 52 54 54 54 55 55 54 51 51 50 49 46
31 31 30 35 39 44 47 49 51 52 51 50 50 50 51 51 51 51 52 52 53 55 55 55 55 54 50 48 48 48 46 44
31 31 32 33 38 42 44 46 50 51 52 52 52 52 52 52 53 53 54 54 55 55 54 52 50 48 46 45 44 43 42 41

GFSFLT1_sfc_30mbdewp_054.txt.gz
Dewpoint
49 52 52 54 56 58 57 56 57 57 57 58 58 57 57 57 56 54 52 50 50 47 44 47 49 46 47 45 43 42 40 39
49 51 52 54 55 57 57 56 56 57 56 56 56 55 54 55 54 55 56 51 50 48 45 49 48 48 47 48 46 44 41 41
49 51 52 53 54 55 57 56 56 56 56 56 56 55 53 54 53 54 55 55 51 50 48 48 47 48 51 51 49 47 44 43
48 50 51 53 53 54 56 56 56 56 56 57 56 56 55 53 52 53 54 55 51 50 51 49 49 48 50 52 52 50 47 47
47 49 50 51 52 54 55 56 56 56 57 55 54 53 52 53 52 51 52 54 53 51 52 52 53 51 50 51 52 52 51 48
47 49 50 51 51 53 53 55 56 56 56 55 54 53 52 52 52 52 54 54 53 52 52 54 55 55 55 55 54 55 53 53
47 49 50 50 51 52 53 54 55 55 55 55 54 53 51 51 51 51 53 53 55 55 54 56 56 56 56 56 56 56 56 54
46 48 49 49 51 51 52 52 53 55 55 55 54 53 53 52 50 50 49 51 51 52 54 53 54 55 55 55 56 56 56 55
44 47 49 50 51 51 51 51 51 53 55 55 55 54 53 52 51 49 48 48 49 51 51 52 52 52 52 53 53 54 54 55
42 45 48 50 50 51 51 50 50 51 53 55 55 54 54 52 51 51 50 49 49 50 51 51 50 50 51 52 52 52 53 54
37 43 47 49 50 51 52 51 49 50 52 53 53 54 54 54 53 52 51 52 52 51 52 53 52 52 52 52 53 52 52 54
38 42 46 49 50 51 52 52 50 49 51 52 52 53 53 54 54 53 53 53 52 52 52 52 52 52 52 52 53 53 53 54
34 43 46 48 49 50 51 51 50 50 50 51 53 53 53 53 53 53 54 53 53 53 52 52 51 51 51 51 52 52 52 53
30 39 45 47 48 49 50 51 51 50 50 51 52 53 53 53 53 53 52 52 52 52 51 51 50 50 50 52 53 53 53 53
28 30 40 45 47 48 49 50 51 51 50 51 51 52 53 53 53 52 53 52 51 51 51 50 50 50 51 51 52 53 53 54
29 30 31 37 44 48 49 49 50 51 50 50 51 52 52 51 51 51 51 52 51 51 50 50 51 51 52 52 52 54 54 54
29 29 31 32 38 45 47 49 50 50 50 50 50 51 51 51 51 51 51 51 51 51 51 50 51 52 53 53 55 55 54 54
31 31 32 33 35 43 45 47 49 50 50 50 49 50 50 50 51 50 50 51 52 51 51 51 52 52 53 53 53 54 53 51
40 38 36 33 34 36 40 42 47 50 50 49 49 49 49 50 50 50 50 51 52 52 53 53 54 54 53 52 49 49 47 45

GFSFLT1_sfc_30mbdewp_057.txt.gz
Dewpoint
46 48 49 53 57 57 57 57 57 58 58 58 58 58 58 59 56 54 52 50 50 50 48 49 47 44 43 44 45 44 42 41
45 50 49 52 55 57 57 57 57 57 56 56 56 56 57 57 57 52 53 50 50 50 48 52 51 47 45 47 44 43 41 41
46 49 50 52 54 56 57 56 57 56 56 56 55 55 56 56 56 57 53 52 50 50 49 50 52 48 49 50 48 44 41 41
45 48 51 52 53 55 57 56 56 56 56 57 56 55 55 54 53 54 55 55 51 50 51 51 51 51 52 53 52 49 45 45
44 47 50 51 52 54 56 56 56 56 57 56 55 54 52 52 52 51 50 54 54 51 51 52 52 51 51 54 53 52 50 47
43 46 49 51 51 54 55 56 56 56 56 56 55 54 53 51 51 51 51 54 56 54 52 53 53 53 53 53 54 55 53 51
42 45 48 50 50 52 55 56 56 56 56 55 55 54 53 52 52 52 52 53 55 55 52 53 55 56 56 55 55 55 56 53
41 44 46 48 50 51 53 54 55 56 56 55 55 54 54 53 52 51 51 53 54 55 55 53 55 57 57 56 57 57 57 56
40 44 46 47 50 51 51 52 52 55 56 55 55 55 54 53 53 52 52 52 53 55 55 55 56 57 57 56 56 56 55 56
38 41 45 48 49 51 51 50 51 53 55 55 55 55 54 53 53 53 52 52 52 54 55 56 56 56 56 56 56 55 55 56
34 39 42 47 49 50 52 50 49 50 53 55 55 55 54 54 53 53 53 52 52 52 54 54 54 54 55 55 54 54 54 54
31 34 39 45 48 49 52 51 48 48 51 53 55 55 56 56 55 55 54 54 53 51 51 52 52 52 53 53 52 52 52 53
30 35 40 43 47 49 51 52 50 48 49 52 54 56 56 56 56 56 56 54 54 53 51 51 51 51 52 52 52 51 52 52
27 31 40 44 46 48 49 52 51 50 49 50 54 55 55 55 56 56 56 56 55 54 53 52 51 52 52 52 52 52 52 52
26 27 30 39 45 47 48 49 52 51 50 50 51 54 54 55 56 56 56 56 55 55 54 53 53 53 52 52 51 52 52 52
31 31 30 31 37 44 47 48 50 52 51 50 51 53 54 54 55 55 55 55 54 54 54 54 54 53 52 52 51 51 52 53
36 37 36 34 33 33 43 46 49 51 52 52 51 52 53 54 54 54 55 55 54 54 53 53 53 53 51 50 51 52 52 52
38 40 40 40 38 37 36 41 47 49 51 52 51 52 52 53 54 53 53 54 54 53 53 53 53 53 51 49 50 52 54 55
40 40 41 41 40 39 39 35 40 46 48 50 51 51 52 52 53 53 53 53 53 53 53 53 53 53 51 50 50 53 54 54

GFSFLT1_sfc_30mbdewp_060.txt.gz
Dewpoint
44 45 49 56 57 57 58 58 58 59 59 59 59 59 58 57 57 56 58 56 53 54 51 52 50 50 50 49 48 48 47 46
46 47 48 56 57 57 57 57 58 57 57 57 57 56 57 57 57 57 55 53 51 51 50 50 49 47 46 49 49 47 47 46
45 49 49 53 57 57 57 57 57 57 57 56 56 56 57 57 57 54 52 52 51 50 51 49 49 52 50 49 46 47 47 47
45 49 50 52 55 57 57 56 57 56 56 56 56 56 56 55 55 54 52 51 50 50 51 52 51 53 50 50 49 49 45 45
45 48 51 51 53 57 57 56 56 56 56 55 55 54 53 51 54 55 53 55 51 50 52 52 51 51 53 54 53 53 50 46
44 47 50 52 53 55 56 56 56 56 56 55 55 54 53 50 53 54 53 54 56 52 52 53 52 51 52 54 55 54 54 53
41 47 49 52 52 55 56 56 55 56 56 56 55 54 53 50 51 50 50 52 56 56 53 53 54 55 53 54 55 56 55 55
40 46 48 50 52 54 55 55 55 56 55 55 55 55 54 52 51 50 49 49 52 56 55 54 55 55 55 56 56 56 57 55
37 43 47 49 51 55 54 54 54 55 56 55 55 55 54 53 51 50 50 49 51 53 55 54 55 55 55 57 57 57 56 56
36 42 47 48 51 52 54 53 54 55 54 56 55 55 54 54 53 52 51 51 52 55 56 55 55 55 56 57 57 56 56 56
36 39 46 48 51 52 54 53 52 55 55 55 55 55 55 55 54 54 53 52 51 52 55 56 55 54 56 57 57 56 55 55
30 36 41 48 50 51 53 53 51 52 55 55 55 54 54 55 54 54 54 53 53 52 52 53 54 56 56 56 55 55 55 54
30 32 39 42 49 50 53 53 52 51 53 56 55 55 55 55 55 54 54 54 54 53 52 52 53 53 54 54 54 54 54 53
30 31 38 41 45 48 51 53 53 51 51 54 56 56 56 55 55 55 55 54 55 54 52 51 51 52 53 53 53 53 52 52
34 37 39 39 43 47 49 52 53 53 51 51 54 56 56 56 56 56 56 56 55 54 54 53 52 51 51 51 51 51 51 52
36 39 40 41 41 41 45 49 53 53 52 51 50 54 56 56 56 56 56 56 56 56 55 54 53 53 51 51 51 51 52 52
38 39 40 41 41 42 42 43 49 53 53 52 52 51 53 55 55 56 56 56 56 56 56 55 55 54 52 51 52 53 52 52
39 40 41 42 43 44 43 44 43 46 52 53 53 52 52 53 54 55 55 55 56 56 55 55 55 55 53 51 50 52 52 52
38 39 40 42 45 46 47 47 47 42 42 50 52 53 53 53 54 54 54 55 55 55 55 55 55 54 53 52 50 51 52 52

GFSFLT1_sfc_30mbdewp_063.txt.gz
Dewpoint
45 52 57 58 58 58 58 59 59 59 60 60 60 60 60 58 57 57 58 57 57 58 58 57 56 55 54 50 49 48 49 49
46 52 57 56 57 58 57 57 58 58 58 57 57 57 57 57 57 56 57 56 55 53 55 54 55 54 52 49 49 47 47 49
46 54 56 56 56 57 57 57 57 57 57 57 57 57 57 57 57 56 56 54 54 51 53 53 52 53 51 49 48 48 47 48
46 51 55 56 56 56 56 56 57 57 57 57 57 57 57 56 56 56 55 53 52 51 51 52 51 52 51 48 47 46 44 47
47 48 53 56 56 57 57 56 56 56 57 56 55 54 53 54 54 53 52 52 51 50 50 50 50 52 51 49 47 47 46 44
48 49 50 54 56 56 56 56 56 56 56 55 54 53 53 53 54 53 52 52 51 50 52 51 51 51 53 50 49 48 51 47
48 50 50 53 56 56 56 56 56 56 56 55 54 53 52 51 53 54 53 53 52 51 51 53 51 51 51 55 53 52 51 53
47 50 51 51 55 55 55 55 55 56 56 55 54 54 53 50 52 53 52 52 54 54 52 52 54 53 51 53 55 55 53 53
47 49 51 51 54 55 55 55 54 56 55 55 55 54 53 51 50 52 52 51 52 54 55 52 53 55 55 55 55 55 56 55
47 48 50 52 53 55 55 55 54 55 56 55 55 55 53 52 50 50 50 49 50 53 55 54 53 53 55 55 56 55 56 56
46 48 49 51 53 54 55 54 53 54 55 55 55 55 55 54 53 51 49 49 49 49 54 55 54 53 54 56 55 56 56 55
38 47 49 51 52 55 54 54 53 53 54 54 55 55 55 54 54 53 52 51 49 49 52 55 55 55 53 54 55 55 55 54
39 40 43 49 51 53 54 53 53 54 54 54 54 55 55 55 54 54 54 52 51 50 49 52 54 54 54 53 53 55 55 55
39 40 41 43 48 52 53 53 53 53 55 55 55 54 54 54 55 55 53 54 53 53 52 50 50 51 53 54 54 54 54 55
39 41 41 42 44 45 50 53 54 52 54 55 55 54 54 53 54 54 54 54 54 53 53 52 52 51 52 51 52 54 55 54
40 40 41 42 43 45 46 46 48 55 53 53 55 55 55 54 54 54 54 54 54 54 54 53 53 52 51 52 52 52 52 52
39 39 41 44 45 46 46 46 47 48 54 53 52 55 56 55 55 55 55 55 55 55 53 54 54 53 51 49 51 51 51 51
39 40 42 43 42 41 41 43 45 46 48 50 53 53 54 55 56 56 55 55 56 55 55 55 54 54 53 51 49 50 51 51
38 40 42 40 39 39 40 41 43 45 45 45 48 51 52 53 54 55 56 56 56 56 55 55 56 56 54 53 50 50 52 52

GFSFLT1_sfc_30mbdewp_066.txt.gz
Dewpoint
48 56 57 57 58 58 59 60 60 60 60 60 60 59 58 58 58 58 59 58 59 58 54 56 51 49 49 51 51 50 50 50
51 57 57 57 57 57 58 58 59 59 59 58 58 58 58 58 58 57 58 57 58 59 56 55 55 53 52 51 50 49 50 50
52 56 57 56 56 56 56 58 58 58 58 58 58 58 58 58 58 57 57 57 56 57 58 55 56 55 53 51 49 48 49 49
51 55 56 56 56 56 56 57 57 57 57 57 57 57 57 56 57 57 58 57 55 54 56 54 55 55 52 50 49 47 47 48
50 54 55 55 56 56 56 56 56 56 57 56 56 54 54 55 56 56 57 56 54 53 54 53 54 54 53 51 49 47 47 47
48 53 55 55 56 56 56 56 56 56 56 56 56 55 55 55 56 55 56 56 53 52 52 53 52 53 54 53 50 47 47 47
46 52 55 55 56 56 56 55 55 56 56 56 55 54 53 53 54 54 54 53 52 52 51 52 52 52 54 54 51 46 46 46
47 49 54 55 55 55 55 55 55 56 55 55 54 53 53 53 53 53 53 52 51 51 52 52 53 52 53 54 51 48 48 50
48 49 52 55 55 55 55 55 55 55 55 55 54 54 52 52 53 53 53 52 51 52 52 52 52 52 51 52 55 53 52 52
49 50 50 54 54 54 54 55 55 55 55 55 54 54 53 51 51 52 52 53 53 53 53 52 53 54 54 53 51 53 55 54
48 50 51 52 54 54 54 54 54 55 55 56 55 54 54 53 51 51 52 52 52 52 55 54 53 53 54 55 55 54 53 54
47 49 51 52 54 55 54 54 53 54 55 55 55 55 55 54 53 51 50 51 50 50 53 54 54 53 53 53 54 55 55 54
43 48 50 52 54 54 54 54 53 54 55 55 55 55 55 55 54 53 52 50 50 49 49 53 54 54 53 52 51 51 54 54
42 43 44 46 49 54 54 54 54 54 54 54 54 55 55 55 55 54 54 53 51 51 49 48 50 54 54 54 53 52 52 54
42 43 45 46 47 47 47 50 51 53 55 54 53 54 54 54 54 54 54 54 53 52 51 50 49 48 51 53 53 53 52 52
42 43 43 42 41 42 43 44 46 47 54 55 54 54 54 54 54 54 54 54 54 53 53 53 52 51 49 49 50 50 51 52
41 41 40 38 39 39 41 42 43 46 46 46 52 55 55 55 54 54 54 54 54 54 53 53 53 53 52 50 50 50 50 50
40 39 36 34 34 36 38 39 41 40 41 42 44 45 49 54 55 55 54 54 54 54 54 54 53 53 52 51 50 51 51 52
37 35 33 32 32 33 35 35 36 36 37 38 40 42 45 45 46 49 55 55 54 54 54 54 54 54 53 51 50 50 51 51

GFSFLT1_sfc_30mbdewp_069.txt.gz
Dewpoint
51 56 58 57 57 58 59 58 60 60 61 60 60 59 59 59 59 60 61 60 58 55 54 53 52 49 49 49 49 50 50 52
52 56 57 57 57 57 58 57 59 60 59 58 58 57 58 58 58 59 59 60 58 55 54 53 51 46 47 51 50 49 50 51
53 56 56 56 56 57 57 57 58 59 59 59 59 59 58 58 58 58 59 58 60 56 54 54 51 48 50 51 49 49 49 50
53 55 55 56 55 56 57 57 57 58 59 58 58 58 58 58 57 57 58 58 58 59 55 54 54 51 52 51 50 49 48 50
52 55 54 55 55 56 56 56 57 57 58 57 56 56 55 56 57 57 58 57 57 57 58 55 56 55 53 51 50 49 49 48
50 54 55 55 55 55 56 56 56 57 57 57 56 55 55 56 56 56 57 57 56 55 57 56 54 56 54 53 50 48 49 49
47 53 55 54 55 55 55 55 55 56 56 56 55 54 54 55 55 55 56 57 56 55 56 55 55 55 55 54 51 49 49 49
48 53 54 54 54 55 54 54 54 55 55 55 55 54 54 54 54 55 55 55 55 54 54 55 54 54 55 55 54 54 51 49
48 53 54 54 54 54 53 53 53 55 55 55 55 54 54 54 54 54 55 55 54 53 54 55 55 55 55 55 55 54 54 51
47 52 53 54 54 54 54 53 53 54 54 55 55 54 53 53 53 53 54 54 53 52 53 54 55 55 54 54 55 54 54 51
48 51 53 54 54 54 54 54 54 53 54 54 54 54 53 52 52 52 52 53 53 53 52 52 53 54 54 53 52 51 53 52
50 50 52 54 54 54 54 54 54 53 54 54 54 54 54 53 51 51 52 52 52 52 54 53 52 53 53 52 51 51 51 52
50 51 52 54 54 54 54 54 54 54 55 54 54 55 54 54 53 52 51 51 52 51 52 54 54 52 52 52 53 53 54 53
46 46 46 49 53 54 55 54 54 54 55 54 54 55 55 54 54 54 53 51 51 51 51 50 52 53 53 52 51 51 51 53
41 41 41 43 44 45 46 46 47 48 53 54 54 55 55 55 55 55 54 53 52 51 50 50 50 50 52 53 53 52 51 51
37 37 37 38 39 40 42 43 43 44 49 49 51 54 55 55 55 55 55 54 53 53 52 51 50 49 49 49 51 52 52 51
35 33 33 33 35 36 37 38 39 39 40 41 43 45 50 52 55 55 55 55 54 54 53 53 52 52 50 49 48 48 49 51
33 32 32 32 32 34 34 34 36 36 37 38 39 40 42 42 44 45 52 54 54 54 54 54 53 53 52 50 49 50 49 49
32 32 31 30 31 32 32 32 33 34 34 34 35 35 36 37 39 41 41 44 46 49 54 54 54 54 53 51 50 51 52 51

GFSFLT1_sfc_30mbdewp_072.txt.gz
Dewpoint
50 54 57 58 58 58 58 59 59 60 60 60 60 59 59 60 61 61 60 62 61 59 57 56 55 54 52 50 48 49 52 52
50 55 57 57 57 57 58 59 60 60 59 58 58 57 58 58 60 61 60 60 58 56 55 54 53 52 51 50 48 48 51 52
52 55 56 56 56 57 56 57 59 60 59 58 59 58 58 58 58 60 61 59 57 56 54 53 51 49 50 50 49 49 51 52
52 54 55 56 56 56 56 56 58 59 59 58 58 58 58 57 57 58 59 60 58 57 56 51 51 48 49 50 50 48 49 51
52 54 55 55 56 56 56 56 56 59 59 57 57 56 55 57 57 58 58 59 59 57 56 54 51 49 50 50 50 49 50 49
51 53 54 55 55 55 55 56 56 57 58 58 57 57 56 57 57 57 58 58 59 59 56 56 53 53 53 51 51 49 49 50
50 53 54 55 55 55 55 55 54 55 56 57 57 55 55 55 56 56 57 57 57 58 59 56 56 56 54 53 52 50 49 50
49 53 54 54 54 54 54 54 53 54 55 56 56 55 54 54 55 55 56 56 55 55 57 57 57 55 55 54 52 51 50 50
47 53 53 53 53 53 54 54 53 54 55 55 55 54 54 55 55 55 56 56 56 56 56 56 56 56 56 55 54 53 53 51
46 52 53 53 53 53 53 53 53 53 54 55 55 54 54 54 55 55 56 56 56 55 55 56 56 56 56 56 55 55 55 54
50 53 53 53 53 53 53 53 53 53 53 54 54 54 53 53 54 54 54 55 55 53 54 55 55 56 56 56 55 55 55 55
51 53 52 53 53 53 53 53 53 53 53 53 54 54 53 52 52 53 53 53 53 52 52 53 54 55 55 55 54 54 54 54
51 52 53 53 53 53 53 53 53 53 54 53 53 54 54 53 52 51 52 52 52 53 53 52 52 53 54 54 53 52 52 52
43 45 46 50 52 53 53 53 54 55 54 54 53 54 54 53 53 53 51 52 52 52 52 53 53 52 52 53 53 52 51 51
39 39 41 43 44 45 45 45 46 47 53 54 54 54 54 54 54 54 53 52 51 51 51 51 51 53 53 53 52 52 52 52
34 35 36 38 38 38 38 39 40 42 45 45 46 50 55 55 55 55 55 54 53 52 51 51 51 51 51 51 52 52 52 51
32 32 32 33 34 33 34 36 37 38 38 39 40 41 43 44 45 47 54 55 55 54 53 52 51 51 50 49 49 50 51 51
32 30 30 31 32 32 32 33 34 34 34 34 34 35 36 37 40 41 42 43 45 47 51 54 54 53 53 50 48 49 50 49
30 29 29 29 30 31 31 32 32 31 30 30 30 31 32 34 35 35 37 39 42 43 44 44 43 40 34 34 37 48 51 51

GFSFLT1_sfc_30mbdewp_075.txt.gz
Dewpoint
45 52 54 56 58 59 59 60 59 60 60 60 61 61 61 61 60 60 60 62 61 61 60 58 58 55 52 52 53 53 53 52
40 52 55 56 58 59 59 59 59 59 58 58 58 58 59 59 61 61 60 60 62 60 58 58 57 55 53 52 52 53 52 53
43 53 55 56 57 59 58 59 59 60 58 58 58 58 59 59 60 61 61 60 60 59 58 57 56 56 54 52 51 52 52 53
38 52 54 56 56 58 58 58 59 59 59 59 59 59 58 58 58 59 59 59 58 57 57 56 55 54 53 52 51 51 51 53
32 50 54 55 56 58 57 57 57 59 59 58 57 56 56 57 57 58 59 59 58 57 55 54 53 52 53 52 51 50 51 51
39 49 52 55 56 57 56 56 57 58 58 57 56 56 56 57 58 58 58 59 58 58 56 54 52 51 52 52 51 50 51 52
41 50 53 54 56 56 55 56 56 58 58 58 57 57 56 56 56 57 57 58 59 57 57 55 53 52 52 52 52 51 51 52
46 51 52 54 55 55 55 55 55 56 57 58 57 56 56 56 56 57 57 57 57 58 57 57 56 54 53 52 52 51 52 51
46 51 52 54 54 54 54 54 53 54 55 57 57 56 56 56 56 56 56 57 56 57 58 57 57 56 55 54 53 52 52 52
40 51 53 53 53 53 53 54 53 53 54 55 55 55 55 55 56 56 56 57 57 56 57 57 57 57 56 55 54 53 52 52
47 52 53 53 53 53 54 54 54 53 53 55 55 55 55 55 55 55 56 57 57 56 56 56 56 57 57 56 55 55 54 54
51 51 53 53 53 54 53 53 53 53 53 54 55 55 55 55 54 55 55 56 55 55 55 56 56 56 56 56 56 56 55 54
50 52 53 53 53 53 53 53 52 53 53 53 53 55 55 54 54 54 55 54 55 54 54 55 55 55 56 56 55 55 55 55
42 44 45 49 51 51 50 51 53 54 54 54 54 53 53 53 54 53 54 54 54 54 53 53 53 54 54 55 55 55 55 54
38 38 40 41 42 42 43 45 46 52 54 53 53 54 54 54 54 54 53 53 53 53 53 53 53 53 53 53 54 54 54 53
34 34 35 37 37 39 40 40 41 42 43 43 44 46 47 50 52 54 55 54 53 53 53 53 53 53 54 53 53 53 53 53
31 31 31 32 33 34 35 36 36 35 35 35 36 38 40 41 43 45 46 46 48 52 53 52 52 48 37 40 47 53 53 53
29 29 30 30 31 32 32 31 31 31 32 31 32 34 35 36 37 38 40 42 43 44 43 43 40 34 33 35 36 43 49 51
29 29 29 29 30 30 30 29 28 28 28 28 30 32 32 33 34 36 37 40 41 38 36 34 35 32 32 33 34 40 44 47

GFSFLT1_sfc_30mbdewp_078.txt.gz
Dewpoint
25 37 47 52 55 59 60 60 61 61 61 61 60 62 62 61 61 61 62 62 62 61 61 60 59 58 57 57 55 55 53 51
24 34 48 53 56 58 59 60 60 60 60 59 59 60 60 60 61 61 61 61 62 62 61 59 59 57 56 56 55 54 52 52
23 35 48 53 55 57 58 59 59 59 59 58 59 60 60 61 61 61 61 61 61 61 60 59 58 57 56 56 55 53 52 52
22 34 48 52 55 57 57 58 59 59 58 58 59 59 59 59 60 59 60 61 60 61 59 59 58 57 56 55 55 53 52 52
25 29 44 50 54 57 57 58 58 58 57 57 57 56 56 57 57 59 60 60 59 59 59 59 58 58 56 56 54 54 52 51
27 30 38 48 53 57 58 58 58 57 56 56 56 57 56 57 58 58 59 59 58 58 58 58 58 58 57 56 54 54 53 51
31 32 42 48 54 57 57 57 57 57 56 57 57 56 56 56 57 57 58 58 58 58 57 57 56 56 56 56 54 54 53 52
34 40 45 49 54 57 57 56 56 57 56 55 56 55 56 56 56 56 58 58 57 57 57 56 55 54 55 55 55 54 53 52
35 43 47 50 54 55 56 56 55 56 55 54 57 57 57 56 56 56 57 57 58 59 57 56 55 54 54 54 54 54 54 53
40 44 49 51 53 54 56 55 55 55 55 55 57 57 57 56 57 57 56 57 57 58 58 58 57 55 54 53 53 52 53 54
45 47 51 52 53 54 56 55 54 55 54 55 54 55 56 56 56 55 54 56 56 57 57 57 57 57 56 55 53 53 53 52
49 50 51 52 53 54 55 54 54 54 54 55 54 53 54 55 55 54 55 56 57 56 56 57 57 57 56 56 55 53 53 53
45 51 52 53 53 54 54 54 54 54 54 54 54 54 54 55 54 55 55 55 56 56 56 56 56 56 57 56 56 55 54 52
40 42 43 44 48 52 53 53 53 54 53 53 53 53 54 54 54 54 55 55 55 55 55 55 56 56 56 56 56 56 56 56
36 36 38 40 42 43 45 47 52 53 53 52 51 53 54 54 54 54 54 54 54 54 54 54 54 54 55 56 55 55 56 55
33 34 35 36 37 39 40 39 42 43 42 43 43 44 46 47 49 49 53 54 54 54 54 54 54 48 38 43 53 54 55 54
31 31 32 33 34 35 35 36 36 36 36 37 38 39 40 41 42 43 45 46 47 45 45 43 40 36 34 35 38 48 52 53
30 30 31 31 31 31 31 32 32 32 33 34 35 36 36 37 39 40 42 42 40 38 38 38 34 32 32 33 33 38 44 48
30 30 30 29 29 29 28 27 28 29 30 30 32 33 35 36 38 39 40 37 35 34 33 33 32 30 30 31 33 39 43 37

GFSFLT1_sfc_30mbdewp_081.txt.gz
Dewpoint
16 22 29 39 47 54 59 61 61 61 61 61 61 61 62 62 62 62 62 62 62 62 61 61 61 61 61 60 59 56 53 52
19 23 31 42 49 55 59 60 60 60 59 59 59 59 60 61 61 62 62 62 62 62 61 60 60 60 59 60 58 55 54 53
21 22 32 46 50 55 58 60 60 59 58 58 58 59 59 60 61 61 61 61 62 62 61 60 60 59 58 58 58 55 53 53
21 21 32 47 50 55 57 59 59 59 57 58 58 59 59 59 59 60 60 60 60 61 60 60 59 58 57 57 58 55 52 53
23 19 30 45 49 54 57 58 58 58 58 57 58 57 56 57 57 59 59 60 61 61 60 59 59 58 57 57 58 57 53 52
22 21 23 42 49 54 57 57 57 57 57 56 55 54 55 56 56 58 60 59 60 60 60 59 58 58 57 57 58 56 54 52
25 20 21 38 48 54 57 57 57 57 57 56 54 54 55 56 56 58 59 59 58 58 59 59 59 58 58 57 58 56 54 53
32 27 28 35 47 54 56 56 56 56 56 56 54 54 56 56 56 57 58 57 57 57 57 58 58 59 59 58 58 56 55 54
40 33 33 41 48 54 56 56 56 56 56 55 54 54 55 55 56 56 57 57 58 58 57 57 57 57 58 58 57 56 56 55
46 37 43 45 51 57 56 55 56 56 55 55 54 54 54 55 56 57 58 58 58 58 57 56 56 56 56 57 57 56 56 56
49 43 46 48 55 56 56 56 56 56 55 54 55 55 55 56 57 56 56 56 56 58 58 57 56 55 55 55 55 55 54 54
45 49 50 54 55 55 57 55 56 56 55 54 54 55 55 56 56 55 55 56 56 57 57 58 57 56 55 54 53 53 52 52
41 45 47 53 54 55 55 55 54 55 54 55 54 54 54 55 54 54 55 55 56 56 56 56 57 57 57 56 55 53 52 51
37 39 41 44 46 50 52 55 55 55 55 55 54 54 55 54 54 55 55 55 55 56 56 56 56 56 57 56 56 55 54 53
35 35 37 39 41 42 43 45 50 53 53 52 52 53 54 54 54 55 56 56 55 55 55 55 55 55 53 55 56 56 56 56
32 33 34 35 37 38 39 40 41 44 44 44 44 45 46 47 48 50 52 50 50 50 53 46 41 38 36 39 46 54 56 56
31 32 32 32 33 35 35 37 37 39 39 39 40 41 42 43 44 45 43 42 42 42 39 37 36 34 33 34 36 47 51 51
31 32 31 31 31 31 34 35 37 36 36 36 38 39 40 41 42 40 39 37 37 36 36 34 31 31 32 33 34 41 41 37
31 31 29 30 30 31 31 32 32 33 33 35 36 37 38 39 39 37 36 35 34 34 34 32 30 30 31 34 38 38 34 31

GFSFLT1_sfc_30mbdewp_084.txt.gz
Dewpoint
25 25 21 22 29 52 62 63 63 63 63 62 62 62 63 64 64 63 63 62 62 63 62 62 62 61 61 61 60 61 59 57
24 24 21 28 41 56 62 62 62 63 61 60 60 60 61 62 62 62 62 63 63 63 62 62 61 60 60 60 60 59 59 56
26 24 26 38 49 55 62 62 62 62 61 60 59 59 60 60 61 61 62 62 62 62 62 61 60 60 60 59 59 58 58 55
27 26 27 43 50 56 60 61 61 61 59 59 59 59 59 57 59 61 61 62 61 62 62 60 60 60 59 59 59 58 56 55
26 27 26 46 49 57 59 60 60 60 59 58 58 57 57 57 58 60 60 61 61 61 61 60 60 60 59 59 59 58 57 53
25 27 26 47 50 57 59 60 59 59 59 58 58 57 57 57 58 59 59 60 61 62 60 60 59 59 59 59 59 58 58 54
25 28 27 42 50 56 59 59 59 59 59 59 58 56 55 56 57 58 59 58 58 59 60 59 59 59 58 58 59 58 58 56
48 44 27 30 50 56 58 58 58 58 58 58 57 56 55 56 57 58 58 57 57 57 59 59 58 58 58 57 58 58 57 56
47 48 50 38 52 57 58 57 57 58 58 57 57 57 56 56 57 58 58 57 57 58 58 58 58 59 58 58 57 58 57 56
45 47 50 40 52 57 57 57 56 57 58 57 56 56 56 57 57 58 58 58 58 58 57 57 57 58 59 58 57 57 57 56
42 44 48 55 55 58 58 57 56 57 57 57 55 56 55 56 57 58 58 59 58 58 57 56 56 57 57 58 57 57 57 56
39 41 44 49 56 57 57 57 57 56 57 56 56 55 56 57 57 57 56 57 58 58 58 56 56 56 56 56 56 56 56 55
37 38 40 43 46 52 56 56 57 56 56 56 55 55 56 57 56 56 56 56 57 57 58 57 56 55 55 55 54 54 54 54
35 36 36 38 40 42 45 51 56 56 56 55 55 55 55 55 55 55 56 56 56 56 57 57 57 56 55 55 54 54 53 52
33 34 34 35 37 38 40 43 49 53 52 51 51 52 53 53 55 55 56 56 56 56 54 48 47 44 45 49 55 55 54 54
32 32 32 33 34 36 38 39 41 45 46 45 46 47 48 49 48 47 47 47 45 45 42 40 38 36 35 38 45 53 56 55
32 31 31 32 32 34 35 38 39 40 41 42 42 43 44 43 42 41 40 40 39 37 35 35 35 34 34 35 39 48 43 43
31 31 31 31 32 33 33 34 36 38 39 40 41 42 40 39 38 37 37 36 35 34 33 32 32 33 35 38 38 36 34 33
30 31 31 31 31 31 32 32 33 34 35 37 39 39 39 38 36 35 34 34 34 33 32 31 30 32 37 35 34 32 30 29

GFSFLT1_sfc_30mbdewp_087.txt.gz
Dewpoint
22 23 26 25 23 53 63 63 64 63 64 63 62 61 64 63 63 63 63 63 63 62 61 62 62 61 60 60 60 60 60 60
26 27 26 25 24 60 63 63 64 63 62 61 60 59 62 63 63 63 62 62 62 62 62 62 61 61 60 60 60 59 59 59
25 27 28 26 37 61 63 63 63 62 61 60 60 59 60 61 62 62 62 62 62 62 62 61 61 60 60 60 59 59 59 59
19 26 28 32 50 61 62 62 62 61 61 60 60 59 60 59 60 59 60 62 62 62 61 61 61 60 60 60 59 58 57 58
22 26 28 46 60 62 62 62 62 61 60 59 59 58 58 58 58 60 60 61 62 62 62 61 60 60 60 59 59 58 58 55
27 26 25 46 58 61 61 62 61 60 59 58 58 57 57 57 58 59 60 61 61 61 61 61 60 60 60 60 59 58 58 56
46 47 49 46 57 60 60 61 60 59 59 58 58 57 57 56 57 58 59 59 60 61 60 60 60 60 60 60 59 58 58 57
44 46 47 49 51 59 60 60 59 59 58 58 58 57 56 56 57 58 58 57 57 57 60 59 59 59 59 59 59 58 58 57
43 44 45 47 51 58 59 59 59 59 58 58 58 57 56 57 58 58 57 57 56 57 58 59 59 59 59 59 59 58 58 57
41 42 43 47 55 58 59 59 58 59 58 59 58 56 56 57 58 58 57 57 57 57 58 58 58 58 58 58 58 57 57 57
39 40 42 45 49 56 58 58 58 58 59 57 57 56 56 58 59 58 58 58 57 57 57 57 57 58 58 57 56 57 57 57
37 37 39 42 44 48 51 58 58 58 58 57 56 56 57 58 58 59 59 58 57 57 57 56 56 57 57 58 57 56 57 56
35 35 36 38 40 42 44 50 57 57 57 56 56 55 56 57 57 57 58 58 59 58 57 56 56 56 56 56 56 56 56 55
34 34 34 34 37 39 40 43 53 57 57 56 56 57 57 57 57 57 57 57 57 58 58 57 56 56 55 56 56 56 56 55
33 33 33 33 35 36 38 40 43 50 51 52 52 53 53 53 54 55 55 56 52 49 47 46 46 46 49 54 55 54 55 54
31 31 32 32 33 34 35 38 40 44 47 48 47 48 47 47 47 46 45 44 43 42 40 40 39 39 38 45 51 54 54 52
31 31 31 31 32 33 34 35 37 41 42 43 44 43 42 41 41 40 40 38 37 36 35 36 37 37 37 41 44 42 42 41
30 30 31 31 31 32 32 34 35 36 39 40 40 39 38 37 37 37 36 35 34 34 34 34 36 36 36 36 35 34 33 33
29 30 30 31 32 32 32 32 33 34 35 37 38 37 37 36 35 34 34 33 32 31 31 32 34 35 34 33 32 31 30 29

GFSFLT1_sfc_30mbdewp_090.txt.gz
Dewpoint
18 20 22 22 22 42 64 65 65 65 64 64 64 64 63 63 63 64 63 64 63 63 62 62 63 62 61 61 60 60 59 59
17 20 24 25 25 49 61 64 64 64 63 62 62 62 63 63 63 63 63 63 63 62 61 61 62 61 60 60 59 59 59 60
19 18 22 27 28 50 62 63 63 63 63 62 61 60 62 62 62 62 62 62 62 61 61 61 61 60 59 59 59 58 58 60
21 19 20 25 32 58 62 63 63 62 62 60 60 59 60 60 61 61 61 61 61 61 62 61 61 60 59 60 59 58 57 58
37 39 41 41 37 57 62 63 62 62 61 60 59 58 57 58 59 59 60 61 61 61 61 61 60 60 59 59 59 58 58 56
44 46 47 49 54 59 61 63 62 61 61 60 58 57 57 58 58 58 58 59 61 61 61 60 60 60 60 59 59 58 58 56
43 45 46 46 51 61 62 62 61 60 60 59 58 58 57 57 57 58 58 59 60 60 61 61 60 60 60 59 59 59 58 57
42 43 45 46 50 53 61 61 60 60 59 58 58 58 57 56 57 57 58 58 59 60 60 60 60 60 60 60 59 59 58 57
40 41 42 45 49 54 61 61 59 59 58 58 58 57 57 57 57 58 58 58 58 59 59 60 60 60 60 60 60 59 59 57
38 39 40 43 46 51 59 60 59 58 58 58 57 57 56 57 58 58 58 57 57 57 57 58 59 59 59 59 59 58 58 58
36 37 38 41 44 47 53 59 59 58 58 58 58 57 57 57 58 57 57 57 57 57 57 57 57 58 58 58 58 58 57 57
34 35 37 39 41 43 47 51 59 59 59 58 57 57 57 58 58 58 57 57 57 57 56 57 57 57 58 57 57 57 57 57
33 34 34 36 37 40 42 45 49 58 58 57 57 57 58 58 58 58 58 57 57 57 57 56 56 57 57 57 56 57 56 56
32 32 33 34 35 36 39 42 44 53 57 57 57 57 57 57 57 58 58 58 57 57 57 56 56 56 56 56 57 56 56 56
31 31 32 33 34 34 36 39 42 46 52 54 54 54 54 54 54 54 54 52 51 50 49 49 50 51 54 56 56 56 56 56
31 30 31 32 33 33 34 36 39 43 46 47 47 48 48 48 47 46 44 43 42 42 42 42 41 42 43 50 55 55 54 48
30 30 30 30 31 32 34 35 36 40 40 41 42 43 42 41 41 40 39 38 38 38 38 39 39 38 39 43 47 45 44 42
29 29 29 30 30 32 33 34 35 36 38 38 38 38 38 37 37 36 35 34 35 35 36 35 34 34 35 35 36 36 36 36
29 29 30 30 31 31 33 33 34 34 34 36 35 35 35 34 34 33 32 32 32 32 34 34 33 32 33 32 32 31 30 30

GFSFLT1_sfc_30mbdewp_093.txt.gz
Dewpoint
17 18 19 21 21 26 54 65 65 66 65 65 64 64 64 64 64 64 64 64 63 62 61 61 61 60 61 60 60 61 59 60
39 27 19 21 23 24 46 63 65 65 64 63 63 63 63 63 64 64 63 63 63 63 61 61 60 60 59 61 60 59 59 60
44 45 41 22 23 29 45 61 64 64 64 63 63 63 63 63 63 63 63 63 62 62 61 60 61 61 61 60 59 58 59 59
43 44 46 47 45 34 52 60 63 64 64 62 61 61 61 61 61 62 62 62 62 62 61 61 61 61 60 59 59 58 57 59
42 44 45 46 47 49 54 60 62 63 63 61 60 60 59 60 62 61 61 61 61 61 61 61 61 61 59 59 59 58 57 57
41 43 43 45 47 50 56 61 62 63 62 61 59 58 58 58 60 59 60 60 60 61 61 61 60 60 60 59 59 59 58 57
41 41 42 43 46 50 58 61 62 62 61 60 59 58 57 57 58 58 58 59 60 60 60 61 60 60 60 59 59 59 58 58
39 39 40 41 43 47 55 62 61 61 61 59 58 57 57 57 57 58 57 57 58 58 60 60 60 60 60 60 59 59 58 58
37 37 38 40 42 45 51 61 60 60 60 59 58 58 57 57 57 57 57 57 57 58 58 59 60 60 60 60 59 59 59 58
35 36 37 39 41 43 46 59 60 60 59 59 58 57 57 57 57 57 57 57 58 58 59 59 59 60 60 60 59 59 59 58
33 34 35 38 39 42 45 50 59 59 59 58 58 57 57 57 57 57 57 57 57 57 58 58 58 58 58 59 58 59 58 58
32 33 34 36 39 40 42 46 57 58 58 58 57 57 57 57 57 57 57 57 57 56 56 56 55 57 57 57 57 57 57 57
32 32 33 34 36 38 39 42 47 54 59 58 57 57 57 57 57 57 57 57 57 57 56 56 56 57 57 57 56 57 56 56
31 31 31 32 34 36 37 39 42 46 56 58 57 57 58 58 58 57 57 57 57 57 57 56 56 56 56 56 56 56 57 56
30 30 31 31 33 34 35 37 40 43 46 52 55 57 57 56 56 56 55 54 53 52 51 51 51 52 55 56 56 56 56 56
30 29 30 31 31 33 34 36 38 41 41 42 44 47 49 49 49 47 46 45 45 45 44 43 42 43 43 48 55 55 51 49
29 29 30 30 30 31 33 34 36 38 37 37 39 39 40 40 41 40 40 39 39 40 39 38 38 37 38 45 50 47 45 44
28 29 29 30 30 31 31 32 34 35 35 35 34 35 35 35 35 35 35 36 36 36 35 34 33 34 35 36 38 39 38 37
28 29 29 29 30 31 31 31 31 32 32 33 34 33 32 32 32 32 32 33 33 33 33 32 32 32 33 33 33 33 33 33

GFSFLT1_sfc_30mbdewp_096.txt.gz
Dewpoint
43 45 45 46 40 22 25 52 64 66 66 65 65 64 64 64 63 63 63 62 61 61 61 61 61 61 61 61 60 60 60 60
43 44 45 47 47 42 24 39 62 65 65 64 63 62 63 64 64 63 63 63 62 62 61 60 61 60 60 60 60 59 59 60
43 43 45 46 46 47 46 33 57 64 64 64 63 63 63 64 64 63 64 63 63 62 62 61 60 60 60 60 59 59 59 60
42 42 44 44 45 46 47 49 52 63 63 64 62 62 62 61 62 62 63 63 63 62 62 61 61 60 59 60 60 59 58 59
41 41 41 42 43 45 46 50 52 62 64 63 61 61 59 61 61 62 62 63 62 62 61 61 60 61 61 60 60 59 58 57
39 39 40 41 42 44 46 49 54 61 63 62 61 61 60 61 60 51 56 61 62 61 61 60 60 60 60 60 59 59 59 57
38 38 38 39 41 43 45 48 57 62 62 62 61 60 59 60 60 59 60 60 60 61 61 61 60 60 59 60 60 59 58 58
36 36 36 37 39 41 43 46 53 62 61 61 60 60 58 59 60 60 59 59 59 60 60 59 59 59 60 60 59 59 59 58
35 36 35 36 38 40 42 45 48 61 61 61 60 58 58 58 58 58 58 59 59 60 59 59 58 60 60 59 59 59 59 58
33 34 35 35 37 39 41 43 47 60 60 59 58 58 57 57 58 58 58 58 57 58 58 58 59 60 59 59 59 59 59 58
32 32 33 35 36 38 41 42 46 59 59 59 58 58 57 57 57 57 57 57 57 56 57 58 59 59 59 59 59 59 59 59
31 31 32 34 35 36 38 41 44 50 58 58 58 57 57 57 57 57 56 56 57 57 57 58 58 58 58 58 58 58 58 58
30 30 31 32 33 35 36 39 42 45 50 58 57 57 57 57 57 56 56 56 57 57 57 56 56 55 56 56 56 56 56 56
30 29 30 31 32 33 35 37 40 42 46 53 57 57 57 57 56 56 56 56 56 56 55 55 55 56 56 56 56 56 56 56
29 29 30 31 31 32 33 35 37 39 40 42 44 46 57 57 57 57 56 56 55 54 53 51 51 52 53 55 56 56 56 56
29 29 29 30 30 31 32 33 35 37 36 36 37 39 41 46 51 49 48 48 47 46 45 43 43 43 42 45 52 55 54 50
29 29 29 29 30 30 31 31 33 34 35 35 35 35 36 36 39 41 41 40 40 39 38 38 37 36 38 44 50 48 46 45
28 28 28 29 29 30 30 30 31 32 32 33 34 34 33 33 33 35 36 36 36 35 34 34 33 34 35 37 39 39 38 38
28 28 28 29 29 29 29 30 30 29 30 31 32 33 33 33 32 31 32 32 32 32 32 32 32 32 33 34 34 34 34 34

GFSFLT1_sfc_30mbdewp_099.txt.gz
Dewpoint
43 43 44 46 47 48 48 46 36 52 63 65 65 64 64 64 64 63 64 64 63 63 62 62 63 62 61 61 59 60 60 61
42 43 43 45 46 47 48 48 48 42 61 62 61 62 63 63 63 63 64 64 63 62 61 61 62 61 61 61 60 59 60 61
41 42 43 44 44 45 46 48 48 48 54 61 61 61 63 63 64 63 64 63 62 62 61 61 61 61 61 61 60 59 59 60
40 41 41 42 42 43 44 46 47 49 51 60 62 62 63 63 63 63 63 63 62 62 62 62 61 61 60 60 60 59 57 59
39 40 40 40 41 41 42 44 47 49 52 58 60 59 58 61 62 63 63 63 62 62 62 62 61 61 60 60 60 60 59 57
38 38 38 38 39 39 41 43 45 49 54 56 61 60 60 61 62 62 62 62 62 57 54 62 61 61 61 60 60 60 60 59
37 37 37 37 37 39 40 42 44 47 55 57 61 60 60 61 60 61 62 61 57 57 59 61 61 60 60 61 61 60 59 59
34 34 35 36 36 37 40 41 43 46 51 59 61 60 60 61 60 60 59 57 56 57 61 61 61 61 60 60 60 60 59 59
33 33 34 35 36 37 38 40 42 45 49 61 61 61 61 61 61 57 57 57 59 60 60 61 61 60 60 60 60 59 60 59
32 32 33 34 35 36 38 39 41 45 49 61 61 60 59 59 61 61 59 60 60 60 60 60 60 59 59 59 59 59 59 59
31 31 32 33 35 36 37 38 40 44 49 60 59 59 59 59 59 59 59 59 59 59 60 59 59 59 60 60 58 59 59 59
30 31 31 32 33 35 35 36 39 43 45 57 58 58 58 58 58 58 58 58 58 58 58 58 58 59 59 59 59 59 58 58
30 30 31 31 32 33 33 35 37 41 42 49 57 58 58 58 57 58 58 57 57 56 56 57 57 58 58 58 58 58 58 57
30 30 30 31 31 32 33 34 35 38 40 41 44 45 55 57 57 57 57 56 56 56 57 56 57 56 56 56 56 57 57 56
29 29 29 30 30 31 31 32 34 35 37 38 38 40 41 47 57 57 57 56 56 57 56 55 55 54 55 56 56 56 56 57
28 28 29 29 29 30 30 31 32 33 34 35 36 37 37 38 43 44 54 53 51 49 47 45 44 44 43 48 52 55 56 52
27 27 27 28 28 29 29 30 30 31 32 33 35 35 35 35 35 38 38 42 41 41 40 39 39 38 38 43 50 49 47 45
27 27 27 28 28 28 28 29 30 29 30 31 32 34 34 34 33 33 33 34 35 34 34 34 34 35 36 38 41 40 39 38
27 27 27 28 28 27 27 28 28 28 27 29 30 31 32 33 33 32 32 31 32 32 32 33 33 33 34 34 35 35 34 33

GFSFLT1_sfc_30mbdewp_102.txt.gz
Dewpoint
41 41 43 43 45 46 47 48 50 51 49 49 58 59 65 64 63 62 63 66 66 65 64 64 64 63 63 63 62 62 61 61
39 41 42 43 44 45 45 47 48 50 49 43 52 57 62 61 62 62 63 64 65 65 64 64 63 62 62 62 61 60 60 61
39 40 42 43 44 45 45 46 46 47 49 48 47 54 56 59 61 63 63 64 65 64 63 63 63 62 62 62 61 59 60 61
38 39 41 42 42 43 44 45 46 47 49 50 49 54 56 59 61 63 64 64 64 63 63 62 62 62 62 62 61 60 59 60
38 38 39 40 41 42 42 43 44 45 47 49 50 49 54 56 58 62 63 64 64 63 63 62 62 62 62 62 61 61 60 58
37 37 37 38 40 39 40 41 42 43 45 47 51 51 56 55 57 61 63 63 63 63 62 62 62 62 62 62 61 61 61 59
36 36 36 37 39 39 38 39 40 42 44 46 50 54 54 55 56 60 62 63 62 63 63 63 62 62 61 61 61 60 60 60
35 34 35 37 38 38 38 38 39 40 42 45 50 55 54 58 57 60 61 61 62 62 62 59 60 61 61 61 61 61 60 60
34 34 34 36 37 37 37 37 37 39 42 46 50 57 56 60 59 60 60 61 61 62 60 57 56 59 60 61 61 61 60 60
33 33 34 35 36 37 36 36 37 38 42 45 50 60 60 61 61 61 60 61 60 59 58 59 60 61 61 61 61 60 60 60
32 32 34 35 35 36 36 36 36 38 41 44 49 60 61 60 61 61 59 59 59 59 59 60 61 61 61 61 60 60 59 59
32 32 33 34 34 35 34 34 35 36 39 42 47 59 60 60 60 60 60 60 60 60 60 60 59 60 60 60 59 59 58 58
31 31 32 32 33 33 32 33 34 35 37 40 43 46 53 59 59 59 60 60 60 60 60 59 59 59 59 59 58 58 58 58
30 31 31 31 31 31 30 32 33 33 35 38 39 40 43 46 57 59 59 58 58 57 57 57 58 59 58 58 59 58 59 58
29 29 30 30 30 31 30 30 32 32 33 35 36 38 39 40 44 52 57 57 57 57 57 57 57 57 58 57 57 57 57 57
28 28 28 29 29 29 30 30 30 31 32 32 34 36 37 37 37 39 43 51 56 55 52 51 50 50 46 51 55 57 57 56
27 27 28 28 28 28 28 29 31 30 30 30 32 33 35 36 35 34 35 36 39 43 44 44 41 38 38 43 49 52 50 49
27 27 28 28 28 28 28 30 31 29 28 28 30 31 32 33 34 34 33 33 33 34 37 36 35 35 37 40 43 43 41 39
26 27 27 27 28 28 28 28 29 29 28 28 28 29 29 30 32 32 32 32 31 31 32 34 33 33 34 35 35 36 35 34

GFSFLT1_sfc_30mbdewp_105.txt.gz
Dewpoint
37 38 40 42 43 45 45 46 47 49 50 51 49 49 58 60 60 62 63 65 65 66 65 65 65 64 65 64 64 63 63 62
36 40 41 43 43 44 45 46 47 47 47 47 46 43 50 56 59 60 63 64 66 66 65 65 64 63 64 64 63 62 62 62
37 38 40 42 43 44 45 45 46 46 46 47 48 49 47 51 56 59 62 64 66 65 65 64 64 63 63 63 62 61 61 62
36 37 39 40 41 43 44 44 45 46 47 47 48 49 50 51 57 58 59 63 65 65 65 64 64 63 63 63 62 60 59 61
36 37 38 39 39 42 43 43 44 44 46 46 47 48 48 44 50 55 59 61 63 65 65 64 63 63 62 62 62 61 60 59
37 36 37 37 39 41 42 42 42 44 44 45 46 48 49 50 50 53 58 61 63 64 65 64 63 63 63 62 61 61 61 60
36 36 36 36 38 40 41 41 41 42 42 42 44 46 48 51 50 53 56 62 63 64 64 63 63 63 62 63 62 62 61 60
34 34 35 36 37 39 40 40 40 40 40 41 43 45 47 50 52 54 56 61 62 62 63 63 62 62 58 55 57 61 61 61
34 34 35 35 36 38 39 38 38 38 39 40 42 45 48 51 53 55 57 60 62 62 63 62 62 61 59 61 62 62 62 61
34 34 34 35 36 37 38 37 38 37 38 39 41 44 48 55 57 57 59 61 61 62 63 62 63 62 62 62 61 61 61 61
33 33 34 34 35 36 37 37 36 36 37 37 40 43 47 56 57 58 59 60 61 61 62 61 60 58 59 60 60 60 61 61
31 32 33 34 34 35 35 35 35 35 35 37 39 41 44 49 58 58 58 59 60 59 60 60 59 59 58 58 58 59 60 60
31 32 32 33 33 33 34 33 34 34 34 35 37 38 41 44 47 55 59 59 60 59 59 59 59 59 59 57 56 57 58 58
30 31 31 31 32 32 32 32 32 33 33 34 35 36 39 40 41 45 59 59 60 60 59 58 59 59 60 59 57 55 59 58
29 29 30 30 30 31 31 33 32 32 32 32 32 34 36 38 39 40 41 48 59 60 59 59 58 58 59 59 59 59 58 59
28 28 29 29 29 29 30 31 32 31 30 30 31 32 34 36 37 37 37 37 39 49 56 54 56 54 55 58 58 58 58 58
27 27 27 28 28 28 29 29 30 31 30 29 30 31 31 32 34 35 35 35 34 35 39 42 42 40 42 50 56 55 54 53
27 26 27 28 28 28 29 28 29 30 30 30 30 30 30 30 31 32 33 33 33 32 33 34 35 36 40 45 46 44 42 41
27 27 27 28 30 28 28 28 27 28 29 29 30 30 30 30 29 29 29 30 31 31 30 31 33 33 35 37 37 36 35 34

GFSFLT1_sfc_30mbdewp_108.txt.gz
Dewpoint
38 38 41 42 44 45 46 48 49 50 51 52 54 54 53 53 61 64 64 66 66 66 66 65 65 64 64 66 64 65 64 64
38 41 43 43 44 46 46 46 48 49 49 49 48 49 51 50 54 60 63 65 66 65 65 65 65 64 63 65 64 63 63 63
37 38 41 42 43 44 44 45 46 46 47 49 49 50 50 52 53 54 60 61 64 65 65 65 65 64 63 64 63 62 62 63
36 37 39 41 42 43 43 44 44 45 46 47 48 49 49 50 51 50 52 60 62 64 65 66 64 64 62 64 63 62 60 62
35 37 38 39 41 42 43 43 43 43 45 45 45 46 46 48 50 52 51 60 61 63 65 65 64 63 63 63 63 61 60 60
36 36 36 37 40 41 42 42 42 42 43 43 42 43 45 47 49 50 53 53 60 62 64 65 64 63 61 62 63 61 60 59
34 35 36 37 39 40 41 40 40 41 41 41 40 41 42 44 46 48 50 53 56 60 63 64 64 63 63 62 58 61 61 60
34 34 35 36 37 38 39 39 39 40 39 39 39 40 41 42 44 46 48 52 56 57 60 64 64 63 62 62 61 61 61 61
34 34 35 35 36 37 38 38 38 38 38 38 38 39 41 43 45 47 49 52 55 58 60 62 63 63 62 62 60 61 60 59
32 32 34 35 36 37 37 37 36 36 37 37 37 39 41 43 45 47 51 53 55 59 63 63 63 62 62 60 58 58 55 59
30 32 33 34 35 35 36 36 34 36 36 36 36 38 40 42 45 47 53 56 58 60 62 62 62 62 62 59 58 59 61 61
30 31 33 33 34 34 34 35 34 34 34 35 36 36 38 40 41 43 45 49 57 59 61 62 61 62 62 61 60 60 60 60
30 31 31 32 32 32 33 33 33 32 32 34 34 34 36 37 38 41 44 44 51 58 60 60 61 60 60 60 60 59 59 57
29 29 30 30 31 31 32 32 33 32 31 32 32 32 33 35 36 38 40 41 44 52 57 58 60 59 58 58 58 58 56 55
28 28 28 29 29 30 31 31 32 32 31 31 31 31 32 33 34 36 37 38 39 41 51 58 59 59 59 57 56 55 54 55
27 27 27 28 28 29 30 30 31 31 30 30 30 31 31 31 32 33 34 36 36 36 38 41 43 47 47 55 58 56 53 53
26 26 27 28 28 29 29 30 30 30 30 30 31 31 31 30 30 30 30 32 33 34 33 35 36 37 36 44 58 58 57 55
25 26 27 27 30 30 29 29 30 31 30 30 30 31 31 31 30 29 28 28 29 30 32 32 31 32 34 37 46 45 43 41
25 27 28 29 31 30 30 28 28 30 29 29 31 31 31 31 30 29 28 27 26 26 28 30 30 31 32 33 35 36 34 33

GFSFLT1_sfc_30mbdewp_111.txt.gz
Dewpoint
40 43 44 45 46 46 46 47 47 48 49 50 50 51 52 53 53 53 61 66 67 66 65 65 66 65 64 65 64 64 64 64
43 43 43 44 44 44 45 45 46 46 47 47 47 48 49 50 50 51 53 61 65 66 65 65 65 65 63 64 64 64 63 63
41 42 42 43 43 44 44 44 44 45 46 46 47 47 49 49 51 51 51 52 54 65 66 65 66 65 64 63 64 63 62 63
39 39 41 42 42 43 43 43 42 42 43 44 44 44 45 46 47 48 49 51 53 55 63 65 65 65 63 64 63 62 61 62
37 38 39 40 41 42 41 41 41 41 42 42 41 41 41 43 44 46 47 48 50 53 56 62 64 65 63 62 59 56 53 57
36 36 38 39 40 40 40 40 40 40 40 40 39 39 40 41 42 43 45 47 49 51 55 59 60 64 63 59 56 57 59 59
35 36 37 37 38 39 38 38 38 39 38 38 38 38 38 39 40 41 43 45 47 50 53 58 60 60 62 61 59 59 60 59
35 35 36 36 37 37 37 36 35 36 37 37 37 37 38 39 40 42 43 45 47 49 52 56 59 59 59 61 61 61 60 60
34 35 35 35 36 37 36 35 34 35 36 36 36 37 38 38 41 42 43 44 47 49 51 54 56 60 61 61 60 59 59 60
33 34 34 34 34 35 34 35 34 33 34 35 35 36 37 37 39 41 43 46 48 51 51 53 52 55 56 60 58 59 57 55
32 33 33 33 33 34 34 33 34 33 33 33 34 35 35 36 38 40 41 43 46 49 54 54 56 51 54 59 59 60 59 57
31 31 31 32 32 32 33 32 33 33 32 32 33 33 34 35 36 37 39 40 43 46 49 58 58 58 58 58 60 59 58 57
29 29 30 30 30 30 31 32 32 32 32 32 32 32 33 33 34 35 37 38 40 42 47 54 58 57 55 59 59 58 58 58
28 28 28 29 29 30 30 31 31 31 31 31 31 32 32 31 32 33 34 35 37 38 42 44 50 57 58 60 60 60 59 59
27 27 27 28 28 29 30 30 30 30 30 31 31 32 32 31 31 30 31 32 33 35 37 39 41 43 46 49 59 59 57 56
26 26 27 27 28 29 29 29 30 30 30 30 30 31 32 30 29 29 28 29 30 32 33 34 35 36 35 38 46 57 55 55
25 26 25 27 27 29 29 29 29 29 30 30 31 31 31 31 29 28 27 27 27 28 29 31 32 33 34 34 41 56 54 53
25 27 27 28 29 30 29 30 31 30 30 30 31 30 31 31 30 29 28 27 26 26 27 28 29 31 33 33 33 39 42 42
26 27 28 29 30 30 30 30 30 29 28 29 30 29 29 30 30 30 30 29 28 27 27 26 27 29 32 32 31 31 30 31

GFSFLT1_sfc_30mbdewp_117.txt.gz
Dewpoint
44 44 44 44 44 44 44 43 43 44 45 45 46 44 45 47 47 49 50 52 53 53 55 60 65 65 64 64 64 65 64 64
43 43 43 42 41 41 41 41 41 42 42 42 43 41 44 43 46 45 46 48 49 49 51 52 55 62 64 63 63 62 62 64
41 41 40 40 40 40 40 40 40 40 41 41 41 40 43 42 42 42 44 44 45 47 48 49 52 52 55 64 63 62 62 63
40 38 38 38 38 38 38 38 38 38 39 39 39 39 39 40 39 40 42 43 44 45 46 49 50 51 51 54 62 63 61 61
38 37 37 37 35 35 35 35 36 37 37 37 38 38 37 38 38 40 41 42 44 45 46 47 48 50 52 53 57 62 62 59
37 37 36 35 36 35 34 33 34 35 35 36 36 36 37 38 38 38 40 42 43 44 46 46 47 48 50 52 53 56 62 61
36 37 36 35 33 33 34 33 33 34 34 35 35 35 36 36 37 37 38 39 41 43 45 46 47 48 50 51 52 56 59 60
35 33 33 33 32 32 33 33 33 33 33 33 34 34 35 35 36 36 37 38 40 41 42 43 45 47 49 50 51 53 57 59
33 34 32 32 32 32 32 32 32 33 33 33 33 34 34 35 35 35 36 37 38 39 40 41 43 45 47 49 51 52 54 59
32 32 33 31 31 31 31 31 31 32 32 33 33 33 34 34 34 34 34 35 36 37 38 40 41 43 45 48 52 52 53 57
32 32 32 32 32 32 30 31 31 31 31 32 32 32 33 32 33 32 32 33 34 35 36 37 39 41 44 45 48 53 53 57
30 30 31 31 31 31 30 30 30 30 31 31 32 32 31 30 30 30 30 31 32 32 33 35 36 37 39 40 42 53 53 54
30 30 29 28 29 29 29 29 29 29 31 31 31 31 31 30 29 29 29 29 30 30 31 32 33 34 36 37 38 42 53 54
26 26 26 27 27 28 28 28 28 29 30 30 30 30 30 30 29 29 29 29 29 29 30 30 31 33 33 34 35 38 44 54
24 25 25 26 27 27 27 28 28 29 29 29 29 29 30 30 29 28 27 27 27 27 29 29 30 31 31 33 34 39 45 50
24 24 26 26 27 27 27 27 28 28 28 28 28 28 28 28 28 28 27 27 26 26 27 28 29 30 30 31 33 34 36 38
24 24 26 26 27 28 28 28 28 28 27 27 26 26 26 26 27 26 27 25 25 25 25 26 28 30 31 30 31 31 31 32
23 24 26 27 29 29 28 29 26 24 24 24 23 23 23 24 24 24 24 24 24 24 24 25 26 29 31 30 29 29 29 30
23 25 24 27 28 30 30 30 28 24 24 24 23 21 20 20 21 22 22 21 22 22 23 24 25 27 31 30 29 28 28 28

GFSFLT1_sfc_30mbdewp_120.txt.gz
Dewpoint
42 41 41 40 40 41 41 41 41 43 44 45 44 44 45 46 46 45 48 47 48 48 50 52 53 58 63 64 64 65 64 64
39 39 39 39 39 39 39 39 39 40 41 41 42 41 42 43 42 43 44 44 45 46 48 49 51 52 52 56 63 61 60 62
37 37 36 35 35 35 35 36 37 38 39 39 40 40 42 42 40 42 42 43 44 45 46 47 49 50 50 50 55 62 62 61
36 36 36 36 35 35 34 34 35 36 37 38 38 39 39 39 39 39 40 42 44 45 46 47 47 48 49 51 53 54 60 62
36 35 34 34 35 36 36 35 34 34 35 36 37 37 37 38 38 39 39 41 41 43 46 47 47 48 48 49 51 52 56 58
36 37 35 34 34 34 35 35 35 34 34 35 35 35 36 37 37 37 38 39 40 42 44 45 45 47 48 49 49 50 53 54
35 35 36 35 34 34 34 33 33 34 33 34 34 34 35 35 36 36 36 37 39 40 41 42 43 44 46 48 50 51 51 52
33 33 33 33 33 33 33 33 32 33 33 33 33 33 34 34 34 35 35 36 36 37 38 40 40 42 43 45 47 48 50 51
33 33 33 33 33 32 30 31 32 33 32 32 33 33 33 33 33 33 33 34 34 36 36 38 39 40 42 44 46 48 50 52
32 32 32 33 33 32 31 31 31 31 32 32 32 32 32 32 32 32 32 32 33 33 34 35 37 38 39 42 43 45 48 51
31 31 31 31 32 32 31 31 31 31 31 32 31 32 32 31 31 30 30 31 31 32 32 33 35 36 37 38 39 41 43 46
29 29 30 31 31 30 30 30 30 31 31 31 31 31 31 31 31 30 30 30 30 31 31 32 32 33 34 35 36 37 38 42
27 27 27 27 28 29 29 29 29 30 30 30 30 30 30 29 28 28 28 28 29 29 30 31 31 31 32 33 34 35 37 40
25 25 26 26 27 28 28 29 29 29 30 29 28 29 28 28 28 27 27 27 27 28 29 30 31 31 31 31 33 34 36 38
24 24 26 27 27 27 27 28 29 29 29 28 28 28 27 28 27 27 27 26 26 26 27 29 31 31 30 30 31 32 32 33
23 23 26 26 26 28 28 27 27 27 25 24 25 25 25 25 25 24 25 25 25 25 26 27 29 30 30 29 29 29 29 30
23 24 25 26 27 27 27 26 25 24 24 23 22 22 22 22 22 23 22 22 23 24 24 25 27 28 31 29 28 27 27 27
24 25 26 27 28 29 28 27 27 25 24 23 22 21 20 20 20 20 20 21 21 22 23 24 25 27 28 28 28 27 26 26
25 25 26 27 28 29 29 28 26 24 23 23 22 21 20 20 19 19 19 20 20 22 21 21 22 25 26 26 26 26 26 26

GFSFLT1_sfc_30mbdewp_123.txt.gz
Dewpoint
37 36 36 36 36 37 37 38 39 40 42 44 45 45 45 45 45 46 47 48 48 49 51 51 52 53 56 62 63 65 65 65
36 36 36 35 35 35 35 36 37 38 39 39 41 42 43 42 42 44 44 46 47 48 47 49 50 51 52 53 55 60 63 64
34 33 34 35 35 36 35 35 35 36 37 39 39 40 42 42 41 42 42 44 46 46 47 48 49 49 50 51 52 54 62 62
34 33 33 34 34 34 35 35 35 35 36 37 37 38 38 39 39 40 41 42 43 45 46 46 47 48 48 48 51 52 54 61
35 35 34 33 34 35 34 34 35 36 36 35 36 35 35 37 38 38 39 41 42 42 44 45 46 47 48 48 49 50 52 53
36 36 36 35 34 34 34 34 34 35 35 36 35 34 35 35 36 37 37 39 39 40 41 42 43 44 46 47 49 50 50 50
35 35 35 35 35 33 33 33 33 34 34 35 35 34 34 34 34 34 35 36 37 37 38 39 40 41 42 44 45 47 49 51
34 34 33 34 33 32 33 33 33 33 33 33 33 33 33 33 32 33 33 33 34 35 35 37 38 39 40 42 43 45 47 48
33 33 32 32 32 31 31 31 31 32 33 33 33 33 33 32 32 32 32 32 33 33 34 35 36 37 38 39 41 43 45 47
32 31 31 31 31 31 31 31 31 31 32 32 31 31 32 32 31 31 31 32 32 32 33 33 34 35 36 37 38 40 41 42
30 29 30 30 29 30 30 30 30 31 31 31 31 31 31 30 30 29 30 30 30 31 32 32 33 33 34 35 36 37 38 40
28 28 28 29 29 29 30 30 30 30 30 30 30 30 30 30 29 28 28 29 29 29 30 32 32 32 33 33 34 36 37 39
26 26 26 27 27 28 28 29 29 30 30 29 29 29 29 28 28 27 27 27 27 28 29 31 31 31 32 32 33 34 35 35
24 25 26 26 27 28 28 28 29 29 28 28 28 27 27 27 26 26 26 26 26 26 28 29 31 31 30 30 30 30 31 32
24 25 25 26 26 27 27 27 26 26 25 24 24 24 25 25 25 24 25 25 25 25 26 27 30 30 30 29 29 29 29 29
24 24 25 25 25 25 25 25 24 23 22 22 21 21 22 22 22 22 22 23 24 24 24 25 28 28 29 29 28 28 27 27
24 24 24 25 25 25 25 26 24 22 21 20 20 20 20 20 20 21 21 21 22 21 22 22 24 25 26 26 27 27 26 26
24 24 26 26 27 26 25 25 22 22 21 20 20 21 20 21 20 20 20 21 21 21 21 21 22 23 23 24 25 26 25 25
25 26 25 26 28 28 28 24 22 21 21 20 20 20 20 20 20 20 20 20 20 20 20 21 21 22 20 21 23 25 25 25

GFSFLT1_sfc_30mbdewp_126.txt.gz
Dewpoint
37 38 38 38 38 38 37 38 39 40 41 43 45 45 46 45 46 46 48 49 50 51 50 53 54 54 57 59 61 63 64 65
36 36 36 37 38 37 37 37 37 38 39 40 41 42 44 44 43 45 45 47 48 49 49 49 50 50 52 54 55 57 61 63
36 35 35 36 36 36 36 36 37 37 37 38 40 42 42 42 42 43 43 44 46 46 47 48 48 49 50 51 52 53 54 60
35 35 35 35 36 36 36 36 36 37 38 38 38 38 38 38 39 40 41 42 43 43 45 46 47 47 48 48 49 51 51 52
35 36 36 36 36 36 37 36 36 36 38 37 38 37 36 37 38 38 39 40 41 41 42 42 44 45 46 47 48 50 50 50
36 36 35 35 35 34 35 36 35 36 37 37 37 37 36 36 36 37 37 38 38 39 39 40 41 42 43 44 45 46 48 50
35 35 35 35 35 35 35 35 34 36 35 35 35 35 36 35 35 34 34 35 36 37 37 38 39 40 41 42 43 44 46 47
34 34 34 34 34 34 34 34 33 34 34 34 34 34 34 33 34 33 33 33 34 34 35 36 37 38 39 40 41 42 44 46
34 33 33 32 32 32 32 32 32 33 33 33 33 33 33 33 33 32 33 33 33 33 34 35 36 36 37 38 39 41 43 43
33 33 32 31 31 31 31 31 31 32 32 32 32 32 32 31 31 31 31 32 31 32 33 34 34 34 35 36 37 38 39 41
32 31 30 30 30 31 31 30 31 31 31 31 31 31 30 31 30 30 30 30 30 31 32 32 32 33 33 34 35 37 37 38
31 29 28 29 30 30 30 30 30 31 31 30 30 30 30 29 29 29 29 30 30 30 30 31 31 31 32 32 32 33 33 34
28 27 27 28 28 28 29 29 30 30 30 30 30 29 29 29 29 28 28 29 29 28 29 30 30 30 30 31 30 31 31 31
27 26 26 26 27 27 28 29 28 28 28 28 28 27 27 27 27 27 27 28 27 27 27 28 28 29 29 30 30 29 29 30
26 25 26 26 26 27 27 28 27 26 25 24 25 24 24 24 24 24 25 25 25 25 26 26 27 27 27 28 29 29 28 29
25 25 25 25 26 26 27 27 26 25 24 23 23 21 22 22 22 22 23 23 22 22 23 23 24 23 25 26 28 28 27 27
25 24 25 25 25 25 26 25 23 22 21 20 21 21 21 21 22 22 22 21 22 21 22 22 21 19 21 24 26 26 26 25
24 25 25 26 25 26 25 24 22 20 19 19 20 22 21 21 21 21 21 21 21 21 21 21 21 20 20 21 23 25 25 25
25 26 25 26 27 27 25 22 21 20 20 19 20 20 21 21 20 20 21 21 21 20 19 20 20 20 18 19 21 23 24 23